30/7/21
Time         Wind Dir  Wind Gust   Humidity       Temp   Tot Rain Wind Chill Heat Index  Dew Point   Barom SL Temp Out H Temp Out L  DailyRain   HourRain   24HrRain   RainRate   Wind Run   Deg Heat   Deg Cool  MonthRain
                          km/hr          %         C         mm         C         C         C         mb         C         C         mm         mm         mm      mm/hr         km         C         C         mm
0:00              245        0.0         83       23.7      226.0       23.7       26.3       20.7     1012.0       23.7       23.7        0.0        0.0        0.0       0.00      335.4       0.00       6.93        0.0
0:01              244        0.0         83       23.7      226.0       23.7       26.3       20.7     1012.0       23.7       23.7        0.0        0.0        0.0       0.00        0.4       0.00       0.02        0.0
0:04              244        0.0         83       23.7      226.0       23.7       26.3       20.7     1012.0       23.7       23.7        0.0        0.0        0.0       0.00        0.8       0.00       0.02        0.0
0:06              246        0.0         83       23.7      226.0       23.7       26.3       20.7     1012.0       23.7       23.7        0.0        0.0        0.0       0.00        1.3       0.00       0.02        0.0
0:08              245        0.0         83       23.7      226.0       23.7       26.3       20.7     1012.0       23.7       23.7        0.0        0.0        0.0       0.00        1.7       0.00       0.02        0.0
0:10              248        0.0         83       23.8      226.0       23.8       26.4       20.7     1012.0       23.8       23.7        0.0        0.0        0.0       0.00        2.2       0.00       0.02        0.0
0:12              248        0.0         83       23.8      226.0       23.8       26.4       20.7     1012.0       23.8       23.7        0.0        0.0        0.0       0.00        2.6       0.00       0.02        0.0
0:14              248        0.0         83       23.8      226.0       23.8       26.4       20.7     1012.0       23.8       23.7        0.0        0.0        0.0       0.00        3.0       0.00       0.02        0.0
0:16              248        0.0         83       23.8      226.0       23.8       26.4       20.8     1012.0       23.8       23.7        0.0        0.0        0.0       0.00        3.4       0.00       0.04        0.0
0:18              247        0.0         83       23.8      226.0       23.8       26.4       20.8     1012.0       23.8       23.7        0.0        0.0        0.0       0.00        3.8       0.00       0.04        0.0
0:20              252        0.0         83       23.9      226.0       23.9       26.5       20.8     1012.0       23.9       23.7        0.0        0.0        0.0       0.00        4.5       0.00       0.04        0.0
0:22              250        0.0         82       23.9      226.0       23.9       26.4       20.6     1012.0       23.9       23.7        0.0        0.0        0.0       0.00        4.9       0.00       0.04        0.0
0:24              251        0.0         82       23.9      226.0       23.9       26.4       20.7     1012.0       23.9       23.7        0.0        0.0        0.0       0.00        5.2       0.00       0.04        0.0
0:26              256        0.0         82       23.9      226.0       23.9       26.4       20.7     1011.9       23.9       23.7        0.0        0.0        0.0       0.00        5.7       0.00       0.04        0.0
0:28              258        0.0         82       23.9      226.0       23.9       26.4       20.7     1012.0       23.9       23.7        0.0        0.0        0.0       0.00        6.3       0.00       0.04        0.0
0:30              252        0.0         82       24.0      226.0       24.0       26.5       20.7     1011.9       24.0       23.7        0.0        0.0        0.0       0.00        6.7       0.00       0.04        0.0
0:32              245        0.0         81       24.0      226.0       24.0       26.4       20.5     1012.0       24.0       23.7        0.0        0.0        0.0       0.00        7.2       0.00       0.06        0.0
0:34              246        0.0         81       23.9      226.0       23.9       26.4       20.5     1012.0       24.0       23.7        0.0        0.0        0.0       0.00        7.7       0.00       0.06        0.0
0:36              249        0.0         81       23.9      226.0       23.9       26.4       20.5     1012.0       24.0       23.7        0.0        0.0        0.0       0.00        8.3       0.00       0.06        0.0
0:38              252        0.0         81       23.9      226.0       23.9       26.4       20.5     1012.0       24.0       23.7        0.0        0.0        0.0       0.00        9.1       0.00       0.06        0.0
0:40              254        0.0         81       23.9      226.0       23.9       26.3       20.4     1012.0       24.0       23.7        0.0        0.0        0.0       0.00        9.6       0.00       0.06        0.0
0:42              252        0.0         81       23.9      226.0       23.9       26.3       20.4     1011.8       24.0       23.7        0.0        0.0        0.0       0.00       10.2       0.00       0.06        0.0
0:44              245        0.0         81       23.9      226.0       23.9       26.3       20.4     1011.9       24.0       23.7        0.0        0.0        0.0       0.00       10.8       0.00       0.06        0.0
0:45              245        0.0         81       23.8      226.0       23.8       26.3       20.4     1011.8       24.0       23.7        0.0        0.0        0.0       0.00       11.3       0.00       0.08        0.0
0:48              250        0.0         81       23.8      226.0       23.8       26.3       20.4     1011.8       24.0       23.7        0.0        0.0        0.0       0.00       11.8       0.00       0.08        0.0
0:50              252        0.0         81       23.8      226.0       23.8       26.3       20.4     1011.8       24.0       23.7        0.0        0.0        0.0       0.00       12.1       0.00       0.08        0.0
0:52              252        0.0         81       23.8      226.0       23.8       26.3       20.4     1011.8       24.0       23.7        0.0        0.0        0.0       0.00       12.4       0.00       0.08        0.0
0:54              250        0.0         81       23.8      226.0       23.8       26.2       20.3     1011.9       24.0       23.7        0.0        0.0        0.0       0.00       12.8       0.00       0.08        0.0
0:56              251        0.0         80       23.8      226.0       23.8       26.1       20.1     1011.8       24.0       23.7        0.0        0.0        0.0       0.00       13.3       0.00       0.08        0.0
0:58              250        0.0         80       23.7      226.0       23.7       26.1       20.1     1011.8       24.0       23.7        0.0        0.0        0.0       0.00       13.6       0.00       0.08        0.0
1:00              251        0.0         80       23.7      226.0       23.7       26.1       20.1     1011.6       24.0       23.7        0.0        0.0        0.0       0.00       13.9       0.00       0.08        0.0
1:02              250        0.0         80       23.7      226.0       23.7       26.1       20.1     1011.7       24.0       23.7        0.0        0.0        0.0       0.00       14.3       0.00       0.10        0.0
1:04              250        0.0         79       23.7      226.0       23.7       26.0       19.9     1011.8       24.0       23.7        0.0        0.0        0.0       0.00       14.6       0.00       0.10        0.0
1:06              250        0.0         79       23.7      226.0       23.7       26.0       19.9     1011.8       24.0       23.7        0.0        0.0        0.0       0.00       15.0       0.00       0.10        0.0
1:08              250        0.0         79       23.7      226.0       23.7       26.0       19.9     1011.8       24.0       23.7        0.0        0.0        0.0       0.00       15.4       0.00       0.10        0.0
1:10              249        0.0         79       23.7      226.0       23.7       26.0       19.9     1011.7       24.0       23.7        0.0        0.0        0.0       0.00       15.8       0.00       0.10        0.0
1:12              250        0.0         78       23.7      226.0       23.7       25.9       19.7     1011.7       24.0       23.7        0.0        0.0        0.0       0.00       16.1       0.00       0.10        0.0
1:14              250        0.0         78       23.7      226.0       23.7       25.9       19.7     1011.8       24.0       23.7        0.0        0.0        0.0       0.00       16.4       0.00       0.10        0.0
1:16              252        0.0         78       23.7      226.0       23.7       25.9       19.7     1011.8       24.0       23.7        0.0        0.0        0.0       0.00       16.9       0.00       0.11        0.0
1:18              251        0.0         78       23.7      226.0       23.7       25.9       19.7     1011.8       24.0       23.7        0.0        0.0        0.0       0.00       17.2       0.00       0.11        0.0
1:20              250        0.0         78       23.7      226.0       23.7       25.9       19.7     1011.8       24.0       23.7        0.0        0.0        0.0       0.00       17.6       0.00       0.11        0.0
1:22              250        0.0         78       23.7      226.0       23.7       25.9       19.7     1011.8       24.0       23.7        0.0        0.0        0.0       0.00       18.0       0.00       0.11        0.0
1:24              251        0.0         77       23.7      226.0       23.7       25.9       19.5     1011.8       24.0       23.7        0.0        0.0        0.0       0.00       18.4       0.00       0.11        0.0
1:26              251        0.0         77       23.7      226.0       23.7       25.9       19.5     1011.8       24.0       23.7        0.0        0.0        0.0       0.00       18.7       0.00       0.11        0.0
1:28              251        0.0         77       23.7      226.0       23.7       25.9       19.5     1011.8       24.0       23.7        0.0        0.0        0.0       0.00       19.1       0.00       0.11        0.0
1:30              251        0.0         77       23.7      226.0       23.7       25.9       19.5     1011.8       24.0       23.7        0.0        0.0        0.0       0.00       19.4       0.00       0.11        0.0
1:32              251        0.0         77       23.7      226.0       23.7       25.9       19.5     1011.8       24.0       23.7        0.0        0.0        0.0       0.00       19.8       0.00       0.13        0.0
1:34              252        0.0         77       23.7      226.0       23.7       25.9       19.5     1011.8       24.0       23.7        0.0        0.0        0.0       0.00       20.2       0.00       0.13        0.0
1:36              251        0.0         76       23.8      226.0       23.8       25.8       19.3     1011.7       24.0       23.7        0.0        0.0        0.0       0.00       20.6       0.00       0.13        0.0
1:38              250        0.0         76       23.8      226.0       23.8       25.8       19.3     1011.8       24.0       23.7        0.0        0.0        0.0       0.00       21.1       0.00       0.13        0.0
1:40              250        0.0         75       23.8      226.0       23.8       25.8       19.1     1011.8       24.0       23.7        0.0        0.0        0.0       0.00       21.5       0.00       0.13        0.0
1:42              250        0.0         75       23.8      226.0       23.8       25.8       19.1     1011.8       24.0       23.7        0.0        0.0        0.0       0.00       21.9       0.00       0.13        0.0
1:44              248        0.0         75       23.8      226.0       23.8       25.8       19.1     1011.9       24.0       23.7        0.0        0.0        0.0       0.00       22.4       0.00       0.13        0.0
1:46              248        0.0         75       23.8      226.0       23.8       25.8       19.1     1011.8       24.0       23.7        0.0        0.0        0.0       0.00       22.8       0.00       0.15        0.0
1:48              247        0.0         75       23.8      226.0       23.8       25.8       19.1     1011.9       24.0       23.7        0.0        0.0        0.0       0.00       23.1       0.00       0.15        0.0
1:50              247        0.0         75       23.8      226.0       23.8       25.8       19.1     1011.9       24.0       23.7        0.0        0.0        0.0       0.00       23.6       0.00       0.15        0.0
1:52              247        0.0         75       23.8      226.0       23.8       25.8       19.1     1011.8       24.0       23.7        0.0        0.0        0.0       0.00       24.1       0.00       0.15        0.0
1:54              247        0.0         75       23.8      226.0       23.8       25.8       19.1     1011.8       24.0       23.7        0.0        0.0        0.0       0.00       24.4       0.00       0.15        0.0
1:56              247        0.0         75       23.8      226.0       23.8       25.8       19.1     1011.8       24.0       23.7        0.0        0.0        0.0       0.00       24.8       0.00       0.15        0.0
1:58              247        0.0         76       23.8      226.0       23.8       25.8       19.3     1011.9       24.0       23.7        0.0        0.0        0.0       0.00       25.2       0.00       0.15        0.0
2:00              247        0.0         76       23.7      226.0       23.7       25.8       19.2     1011.9       24.0       23.7        0.0        0.0        0.0       0.00       25.5       0.00       0.15        0.0
2:02              247        0.0         76       23.7      226.0       23.7       25.8       19.2     1011.8       24.0       23.7        0.0        0.0        0.0       0.00       25.8       0.00       0.17        0.0
2:04              247        0.0         77       23.7      226.0       23.7       25.9       19.5     1011.8       24.0       23.7        0.0        0.0        0.0       0.00       26.0       0.00       0.17        0.0
2:06              247        0.0         77       23.7      226.0       23.7       25.8       19.4     1011.7       24.0       23.7        0.0        0.0        0.0       0.00       26.3       0.00       0.17        0.0
2:07              247        0.0         77       23.6      226.0       23.6       25.7       19.3     1011.7       24.0       23.6        0.0        0.0        0.0       0.00       26.9       0.00       0.17        0.0
2:10              247        0.0         77       23.6      226.0       23.6       25.7       19.3     1011.7       24.0       23.6        0.0        0.0        0.0       0.00       27.4       0.00       0.17        0.0
2:12              247        0.0         76       23.5      226.0       23.5       25.6       19.0     1011.6       24.0       23.5        0.0        0.0        0.0       0.00       27.7       0.00       0.17        0.0
2:14              247        0.0         77       23.5      226.0       23.5       25.6       19.2     1011.5       24.0       23.5        0.0        0.0        0.0       0.00       27.9       0.00       0.17        0.0
2:16              247        0.0         76       23.4      226.0       23.4       25.5       19.0     1011.5       24.0       23.4        0.0        0.0        0.0       0.00       28.2       0.00       0.18        0.0
2:18              247        0.0         76       23.4      226.0       23.4       25.5       19.0     1011.6       24.0       23.4        0.0        0.0        0.0       0.00       28.4       0.00       0.18        0.0
2:20              247        0.0         76       23.4      226.0       23.4       25.5       19.0     1011.5       24.0       23.4        0.0        0.0        0.0       0.00       28.7       0.00       0.18        0.0
2:22              247        0.0         76       23.4      226.0       23.4       25.5       19.0     1011.5       24.0       23.4        0.0        0.0        0.0       0.00       29.0       0.00       0.18        0.0
2:24              247        0.0         75       23.4      226.0       23.4       25.4       18.8     1011.5       24.0       23.4        0.0        0.0        0.0       0.00       29.3       0.00       0.18        0.0
2:26              247        0.0         75       23.4      226.0       23.4       25.4       18.8     1011.3       24.0       23.4        0.0        0.0        0.0       0.00       29.4       0.00       0.18        0.0
2:28              247        0.0         74       23.4      226.0       23.4       25.4       18.5     1011.4       24.0       23.4        0.0        0.0        0.0       0.00       29.7       0.00       0.18        0.0
2:30              247        0.0         73       23.5      226.0       23.5       25.3       18.4     1011.4       24.0       23.4        0.0        0.0        0.0       0.00       29.8       0.00       0.18        0.0
2:32              247        0.0         73       23.5      226.0       23.5       25.3       18.4     1011.4       24.0       23.4        0.0        0.0        0.0       0.00       29.9       0.00       0.20        0.0
2:34              247        0.0         73       23.5      226.0       23.5       25.3       18.4     1011.4       24.0       23.4        0.0        0.0        0.0       0.00       29.9       0.00       0.20        0.0
2:36              247        0.0         73       23.6      226.0       23.6       25.4       18.4     1011.4       24.0       23.4        0.0        0.0        0.0       0.00       29.9       0.00       0.20        0.0
2:38              247        0.0         73       23.6      226.0       23.6       25.4       18.4     1011.4       24.0       23.4        0.0        0.0        0.0       0.00       29.9       0.00       0.20        0.0
2:39              247        0.0         73       23.6      226.0       23.6       25.4       18.4     1011.5       24.0       23.4        0.0        0.0        0.0       0.00       29.9       0.00       0.20        0.0
2:42              247        0.0         73       23.6      226.0       23.6       25.4       18.4     1011.4       24.0       23.4        0.0        0.0        0.0       0.00       29.9       0.00       0.20        0.0
2:44              247        0.0         72       23.6      226.0       23.6       25.3       18.2     1011.4       24.0       23.4        0.0        0.0        0.0       0.00       29.9       0.00       0.20        0.0
2:46              247        0.0         72       23.5      226.0       23.5       25.3       18.2     1011.4       24.0       23.4        0.0        0.0        0.0       0.00       29.9       0.00       0.21        0.0
2:48              247        0.0         71       23.5      226.0       23.5       25.2       17.9     1011.4       24.0       23.4        0.0        0.0        0.0       0.00       29.9       0.00       0.21        0.0
2:50              247        0.0         71       23.5      226.0       23.5       25.2       17.9     1011.4       24.0       23.4        0.0        0.0        0.0       0.00       30.0       0.00       0.21        0.0
2:52              247        0.0         70       23.5      226.0       23.5       25.1       17.7     1011.3       24.0       23.4        0.0        0.0        0.0       0.00       30.0       0.00       0.21        0.0
2:54              247        0.0         71       23.5      226.0       23.5       25.2       17.9     1011.3       24.0       23.4        0.0        0.0        0.0       0.00       30.0       0.00       0.21        0.0
2:56              247        0.0         70       23.6      226.0       23.6       25.2       17.8     1011.4       24.0       23.4        0.0        0.0        0.0       0.00       30.0       0.00       0.21        0.0
2:58              247        0.0         70       23.5      226.0       23.5       25.1       17.7     1011.3       24.0       23.4        0.0        0.0        0.0       0.00       30.0       0.00       0.21        0.0
3:00              247        0.0         71       23.6      226.0       23.6       25.3       18.0     1011.3       24.0       23.4        0.0        0.0        0.0       0.00       30.0       0.00       0.21        0.0
3:02              247        0.0         71       23.6      226.0       23.6       25.3       18.0     1011.3       24.0       23.4        0.0        0.0        0.0       0.00       30.0       0.00       0.23        0.0
3:04              247        0.0         71       23.6      226.0       23.6       25.3       18.0     1011.2       24.0       23.4        0.0        0.0        0.0       0.00       30.1       0.00       0.23        0.0
3:06              247        0.0         70       23.6      226.0       23.6       25.2       17.8     1011.2       24.0       23.4        0.0        0.0        0.0       0.00       30.1       0.00       0.23        0.0
3:08              247        0.0         70       23.6      226.0       23.6       25.2       17.8     1011.2       24.0       23.4        0.0        0.0        0.0       0.00       30.2       0.00       0.23        0.0
3:10              247        0.0         70       23.6      226.0       23.6       25.2       17.8     1011.2       24.0       23.4        0.0        0.0        0.0       0.00       30.3       0.00       0.23        0.0
3:12              247        0.0         70       23.6      226.0       23.6       25.2       17.8     1011.2       24.0       23.4        0.0        0.0        0.0       0.00       30.3       0.00       0.23        0.0
3:14              247        0.0         70       23.6      226.0       23.6       25.2       17.8     1011.2       24.0       23.4        0.0        0.0        0.0       0.00       30.3       0.00       0.23        0.0
3:16              247        0.0         70       23.6      226.0       23.6       25.2       17.8     1011.2       24.0       23.4        0.0        0.0        0.0       0.00       30.3       0.00       0.25        0.0
3:18              247        0.0         69       23.5      226.0       23.5       25.1       17.5     1011.2       24.0       23.4        0.0        0.0        0.0       0.00       30.3       0.00       0.25        0.0
3:20              247        0.0         70       23.5      226.0       23.5       25.1       17.7     1011.2       24.0       23.4        0.0        0.0        0.0       0.00       30.3       0.00       0.25        0.0
3:22              247        0.0         71       23.6      226.0       23.6       25.3       18.0     1011.1       24.0       23.4        0.0        0.0        0.0       0.00       30.4       0.00       0.25        0.0
3:24              247        0.0         72       23.6      226.0       23.6       25.3       18.2     1011.2       24.0       23.4        0.0        0.0        0.0       0.00       30.4       0.00       0.25        0.0
3:26              247        0.0         72       23.6      226.0       23.6       25.3       18.2     1011.2       24.0       23.4        0.0        0.0        0.0       0.00       30.4       0.00       0.25        0.0
3:28              247        0.0         73       23.6      226.0       23.6       25.4       18.4     1011.2       24.0       23.4        0.0        0.0        0.0       0.00       30.4       0.00       0.25        0.0
3:30              247        0.0         74       23.6      226.0       23.6       25.5       18.7     1011.1       24.0       23.4        0.0        0.0        0.0       0.00       30.4       0.00       0.25        0.0
3:32              247        0.0         74       23.6      226.0       23.6       25.5       18.7     1011.1       24.0       23.4        0.0        0.0        0.0       0.00       30.4       0.00       0.26        0.0
3:33              247        0.0         75       23.5      226.0       23.5       25.5       18.8     1011.0       24.0       23.4        0.0        0.0        0.0       0.00       30.4       0.00       0.26        0.0
3:36              247        0.0         76       23.5      226.0       23.5       25.6       19.0     1011.1       24.0       23.4        0.0        0.0        0.0       0.00       30.4       0.00       0.26        0.0
3:37              247        0.0         75       23.5      226.0       23.5       25.5       18.8     1011.1       24.0       23.4        0.0        0.0        0.0       0.00       30.4       0.00       0.26        0.0
3:40              247        0.0         75       23.4      226.0       23.4       25.4       18.8     1011.1       24.0       23.4        0.0        0.0        0.0       0.00       30.5       0.00       0.26        0.0
3:42              247        0.0         73       23.4      226.0       23.4       25.2       18.3     1011.1       24.0       23.4        0.0        0.0        0.0       0.00       30.5       0.00       0.26        0.0
3:44              247        0.0         73       23.3      226.0       23.3       25.1       18.2     1011.2       24.0       23.3        0.0        0.0        0.0       0.00       30.6       0.00       0.26        0.0
3:45              247        0.0         73       23.3      226.0       23.3       25.1       18.2     1011.2       24.0       23.3        0.0        0.0        0.0       0.00       30.7       0.00       0.28        0.0
3:48              247        0.0         73       23.2      226.0       23.2       25.1       18.1     1011.2       24.0       23.2        0.0        0.0        0.0       0.00       30.7       0.00       0.28        0.0
3:50              247        0.0         73       23.2      226.0       23.2       25.1       18.1     1011.3       24.0       23.2        0.0        0.0        0.0       0.00       30.7       0.00       0.28        0.0
3:52              247        0.0         72       23.2      226.0       23.2       25.0       17.9     1011.2       24.0       23.2        0.0        0.0        0.0       0.00       30.8       0.00       0.28        0.0
3:54              247        0.0         74       23.2      226.0       23.2       25.1       18.3     1011.4       24.0       23.2        0.0        0.0        0.0       0.00       30.9       0.00       0.28        0.0
3:55              247        0.0         76       23.3      226.0       23.3       25.3       18.8     1011.4       24.0       23.2        0.0        0.0        0.0       0.00       31.1       0.00       0.28        0.0
3:58              247        0.0         76       23.3      226.0       23.3       25.4       18.9     1011.4       24.0       23.2        0.0        0.0        0.0       0.00       31.2       0.00       0.28        0.0
4:00              247        0.0         77       23.3      226.0       23.3       25.5       19.1     1011.2       24.0       23.2        0.0        0.0        0.0       0.00       31.3       0.00       0.28        0.0
4:02              247        0.0         77       23.3      226.0       23.3       25.5       19.1     1011.3       24.0       23.2        0.0        0.0        0.0       0.00       31.3       0.00       0.29        0.0
4:04              247        0.0         78       23.3      226.0       23.3       25.5       19.3     1011.2       24.0       23.2        0.0        0.0        0.0       0.00       31.5       0.00       0.29        0.0
4:06              247        0.0         78       23.3      226.0       23.3       25.5       19.3     1011.2       24.0       23.2        0.0        0.0        0.0       0.00       31.6       0.00       0.29        0.0
4:08              238        0.0         78       23.3      226.0       23.3       25.5       19.2     1011.4       24.0       23.2        0.0        0.0        0.0       0.00       31.9       0.00       0.29        0.0
4:10              221        0.0         78       23.2      226.0       23.2       25.4       19.2     1011.4       24.0       23.2        0.0        0.0        0.0       0.00       32.5       0.00       0.29        0.0
4:12              218        0.0         78       23.1      226.0       23.1       25.3       19.1     1011.4       24.0       23.1        0.0        0.0        0.0       0.00       32.9       0.00       0.29        0.0
4:14              209        0.0         79       23.1      226.0       23.1       25.3       19.2     1011.3       24.0       23.1        0.0        0.0        0.0       0.00       33.3       0.00       0.29        0.0
4:16              209        0.0         81       23.1      226.0       23.1       25.5       19.6     1011.4       24.0       23.1        0.0        0.0        0.0       0.00       33.7       0.00       0.30        0.0
4:18              203        0.0         82       23.0      226.0       23.0       25.5       19.8     1011.5       24.0       23.0        0.0        0.0        0.0       0.00       34.0       0.00       0.30        0.0
4:20              201        0.0         82       22.9      226.0       22.9       25.4       19.7     1011.5       24.0       22.9        0.0        0.0        0.0       0.00       34.4       0.00       0.30        0.0
4:22              200        0.0         83       22.8      226.0       22.8       25.4       19.8     1011.5       24.0       22.8        0.0        0.0        0.0       0.00       34.8       0.00       0.30        0.0
4:24              200        0.0         84       22.8      226.0       22.8       25.4       19.9     1011.5       24.0       22.8        0.0        0.0        0.0       0.00       35.1       0.00       0.30        0.0
4:26              200        0.0         84       22.7      226.0       22.7       25.4       19.9     1011.5       24.0       22.7        0.0        0.0        0.0       0.00       35.4       0.00       0.30        0.0
4:28              200        0.0         84       22.7      226.0       22.7       25.3       19.8     1011.5       24.0       22.7        0.0        0.0        0.0       0.00       35.6       0.00       0.30        0.0
4:30              200        0.0         85       22.6      226.0       22.6       25.3       20.0     1011.5       24.0       22.6        0.0        0.0        0.0       0.00       35.9       0.00       0.30        0.0
4:32              200        0.0         85       22.6      226.0       22.6       25.3       19.9     1011.4       24.0       22.6        0.0        0.0        0.0       0.00       36.3       0.00       0.31        0.0
4:34              197        0.0         86       22.5      226.0       22.5       25.3       20.0     1011.6       24.0       22.5        0.0        0.0        0.0       0.00       36.7       0.00       0.31        0.0
4:36              196        0.0         86       22.4      226.0       22.4       25.3       20.0     1011.5       24.0       22.4        0.0        0.0        0.0       0.00       37.1       0.00       0.31        0.0
4:38              196        0.0         86       22.4      226.0       22.4       25.2       19.9     1011.4       24.0       22.4        0.0        0.0        0.0       0.00       37.5       0.00       0.31        0.0
4:40              196        0.0         86       22.3      226.0       22.3       25.1       19.8     1011.4       24.0       22.3        0.0        0.0        0.0       0.00       37.7       0.00       0.31        0.0
4:42              196        0.0         87       22.2      226.0       22.2       25.1       20.0     1011.4       24.0       22.2        0.0        0.0        0.0       0.00       37.9       0.00       0.31        0.0
4:44              196        0.0         87       22.2      226.0       22.2       25.1       20.0     1011.4       24.0       22.2        0.0        0.0        0.0       0.00       38.1       0.00       0.31        0.0
4:46              196        0.0         87       22.2      226.0       22.2       25.1       19.9     1011.6       24.0       22.2        0.0        0.0        0.0       0.00       38.3       0.00       0.31        0.0
4:47              196        0.0         87       22.1      226.0       22.1       25.0       19.8     1011.5       24.0       22.1        0.0        0.0        0.0       0.00       38.6       0.00       0.31        0.0
4:50              195        0.0         87       22.1      226.0       22.1       25.0       19.8     1011.4       24.0       22.1        0.0        0.0        0.0       0.00       38.9       0.00       0.31        0.0
4:52              195        0.0         87       22.1      226.0       22.1       24.9       19.8     1011.5       24.0       22.1        0.0        0.0        0.0       0.00       39.2       0.00       0.31        0.0
4:54              195        0.0         87       22.1      226.0       22.1       24.9       19.8     1011.6       24.0       22.0        0.0        0.0        0.0       0.00       39.5       0.00       0.31        0.0
4:55              195        0.0         88       22.0      226.0       22.0       25.0       19.9     1011.7       24.0       22.0        0.0        0.0        0.0       0.00       39.7       0.00       0.31        0.0
4:58              195        0.0         88       22.0      226.0       22.0       25.0       19.9     1011.8       24.0       21.9        0.0        0.0        0.0       0.00       39.9       0.00       0.31        0.0
5:00              195        0.0         88       21.9      226.0       21.9       24.9       19.9     1011.8       24.0       21.9        0.0        0.0        0.0       0.00       40.0       0.00       0.31        0.0
5:02              195        0.0         88       21.9      226.0       21.9       24.9       19.8     1011.8       24.0       21.9        0.0        0.0        0.0       0.00       40.2       0.00       0.31        0.0
5:04              195        0.0         89       21.9      226.0       21.9       24.9       20.0     1011.8       24.0       21.9        0.0        0.0        0.0       0.00       40.5       0.00       0.31        0.0
5:06              195        0.0         89       21.9      226.0       21.9       24.9       20.0     1011.8       24.0       21.9        0.0        0.0        0.0       0.00       40.8       0.00       0.31        0.0
5:08              195        0.0         89       21.9      226.0       21.9       24.9       20.0     1011.8       24.0       21.9        0.0        0.0        0.0       0.00       40.9       0.00       0.31        0.0
5:10              196        0.0         89       21.9      226.0       21.9       24.9       20.0     1011.8       24.0       21.9        0.0        0.0        0.0       0.00       41.0       0.00       0.31        0.0
5:12              195        0.0         89       21.9      226.0       21.9       24.9       20.0     1011.8       24.0       21.9        0.0        0.0        0.0       0.00       41.1       0.00       0.31        0.0
5:14              195        0.0         89       21.9      226.0       21.9       24.9       20.0     1011.7       24.0       21.9        0.0        0.0        0.0       0.00       41.2       0.00       0.31        0.0
5:16              195        0.0         90       21.9      226.0       21.9       25.0       20.2     1011.9       24.0       21.9        0.0        0.0        0.0       0.00       41.4       0.00       0.31        0.0
5:18              195        0.0         90       21.9      226.0       21.9       25.0       20.2     1011.9       24.0       21.9        0.0        0.0        0.0       0.00       41.7       0.00       0.31        0.0
5:20              195        0.0         90       21.9      226.0       21.9       25.0       20.2     1011.9       24.0       21.9        0.0        0.0        0.0       0.00       42.0       0.00       0.31        0.0
5:22              195        0.0         90       21.9      226.0       21.9       25.0       20.2     1011.9       24.0       21.9        0.0        0.0        0.0       0.00       42.2       0.00       0.31        0.0
5:24              195        0.0         90       21.9      226.0       21.9       25.0       20.2     1011.9       24.0       21.9        0.0        0.0        0.0       0.00       42.5       0.00       0.31        0.0
5:26              195        0.0         90       21.9      226.0       21.9       25.0       20.2     1012.0       24.0       21.9        0.0        0.0        0.0       0.00       42.9       0.00       0.31        0.0
5:28              195        0.0         90       21.9      226.0       21.9       25.0       20.2     1012.0       24.0       21.9        0.0        0.0        0.0       0.00       43.1       0.00       0.31        0.0
5:30              195        0.0         90       21.9      226.0       21.9       25.0       20.2     1012.0       24.0       21.9        0.0        0.0        0.0       0.00       43.4       0.00       0.31        0.0
5:31              195        0.0         90       21.9      226.0       21.9       25.0       20.2     1012.0       24.0       21.9        0.0        0.0        0.0       0.00       43.7       0.00       0.31        0.0
5:33              195        0.0         90       21.8      226.0       21.8       25.0       20.1     1012.0       24.0       21.8        0.0        0.0        0.0       0.00       43.9       0.00       0.31        0.0
5:36              195        0.0         90       21.9      226.0       21.9       25.0       20.2     1012.0       24.0       21.8        0.0        0.0        0.0       0.00       44.0       0.00       0.31        0.0
5:38              195        0.0         90       21.8      226.0       21.8       25.0       20.1     1012.0       24.0       21.8        0.0        0.0        0.0       0.00       44.2       0.00       0.31        0.0
5:40              195        0.0         90       21.8      226.0       21.8       25.0       20.1     1012.0       24.0       21.8        0.0        0.0        0.0       0.00       44.5       0.00       0.31        0.0
5:42              195        0.0         90       21.8      226.0       21.8       25.0       20.1     1012.0       24.0       21.8        0.0        0.0        0.0       0.00       44.8       0.00       0.31        0.0
5:44              195        0.0         90       21.8      226.0       21.8       25.0       20.1     1012.0       24.0       21.8        0.0        0.0        0.0       0.00       45.0       0.00       0.31        0.0
5:45              195        0.0         90       21.8      226.0       21.8       25.0       20.1     1012.0       24.0       21.8        0.0        0.0        0.0       0.00       45.1       0.00       0.31        0.0
5:48              195        0.0         90       21.8      226.0       21.8       25.0       20.1     1012.0       24.0       21.8        0.0        0.0        0.0       0.00       45.2       0.00       0.31        0.0
5:50              195        0.0         90       21.8      226.0       21.8       25.0       20.1     1012.0       24.0       21.8        0.0        0.0        0.0       0.00       45.4       0.00       0.31        0.0
5:52              195        0.0         90       21.8      226.0       21.8       25.0       20.1     1012.0       24.0       21.8        0.0        0.0        0.0       0.00       45.5       0.00       0.31        0.0
5:54              195        0.0         90       21.8      226.0       21.8       24.9       20.1     1012.0       24.0       21.8        0.0        0.0        0.0       0.00       45.6       0.00       0.31        0.0
5:55              195        0.0         90       21.8      226.0       21.8       24.9       20.1     1012.0       24.0       21.8        0.0        0.0        0.0       0.00       45.6       0.00       0.31        0.0
5:57              195        0.0         90       21.8      226.0       21.8       24.9       20.1     1012.0       24.0       21.8        0.0        0.0        0.0       0.00       45.7       0.00       0.31        0.0
6:00              195        0.0         90       21.7      226.0       21.7       24.9       20.0     1012.0       24.0       21.7        0.0        0.0        0.0       0.00       45.9       0.00       0.31        0.0
6:02              195        0.0         90       21.7      226.0       21.7       24.9       20.0     1012.0       24.0       21.7        0.0        0.0        0.0       0.00       45.9       0.00       0.31        0.0
6:04              195        0.0         90       21.7      226.0       21.7       24.9       20.0     1012.0       24.0       21.7        0.0        0.0        0.0       0.00       46.1       0.00       0.31        0.0
6:06              195        0.0         90       21.7      226.0       21.7       24.9       20.0     1012.1       24.0       21.7        0.0        0.0        0.0       0.00       46.2       0.00       0.31        0.0
6:08              195        0.0         90       21.7      226.0       21.7       24.9       20.0     1012.0       24.0       21.7        0.0        0.0        0.0       0.00       46.4       0.00       0.31        0.0
6:09              195        0.0         90       21.7      226.0       21.7       24.9       20.0     1012.1       24.0       21.7        0.0        0.0        0.0       0.00       46.7       0.00       0.31        0.0
6:12              195        0.0         90       21.7      226.0       21.7       24.9       20.0     1012.1       24.0       21.7        0.0        0.0        0.0       0.00       46.7       0.00       0.31        0.0
6:14              195        0.0         90       21.8      226.0       21.8       24.9       20.1     1012.1       24.0       21.7        0.0        0.0        0.0       0.00       46.9       0.00       0.31        0.0
6:16              195        0.0         90       21.8      226.0       21.8       24.9       20.1     1012.0       24.0       21.7        0.0        0.0        0.0       0.00       47.0       0.00       0.31        0.0
6:18              195        0.0         90       21.8      226.0       21.8       24.9       20.1     1012.1       24.0       21.7        0.0        0.0        0.0       0.00       47.2       0.00       0.31        0.0
6:20              195        0.0         90       21.8      226.0       21.8       24.9       20.1     1012.1       24.0       21.7        0.0        0.0        0.0       0.00       47.3       0.00       0.31        0.0
6:22              195        0.0         90       21.8      226.0       21.8       24.9       20.1     1012.1       24.0       21.7        0.0        0.0        0.0       0.00       47.5       0.00       0.31        0.0
6:24              195        0.0         90       21.8      226.0       21.8       24.9       20.1     1012.1       24.0       21.7        0.0        0.0        0.0       0.00       47.6       0.00       0.31        0.0
6:26              195        0.0         90       21.8      226.0       21.8       24.9       20.1     1012.0       24.0       21.7        0.0        0.0        0.0       0.00       47.8       0.00       0.31        0.0
6:28              195        0.0         90       21.8      226.0       21.8       24.9       20.1     1012.0       24.0       21.7        0.0        0.0        0.0       0.00       47.9       0.00       0.31        0.0
6:30              195        0.0         90       21.8      226.0       21.8       24.9       20.1     1012.1       24.0       21.7        0.0        0.0        0.0       0.00       48.0       0.00       0.31        0.0
6:32              195        0.0         90       21.8      226.0       21.8       25.0       20.1     1012.1       24.0       21.7        0.0        0.0        0.0       0.00       48.1       0.00       0.31        0.0
6:33              195        0.0         90       21.8      226.0       21.8       25.0       20.1     1012.0       24.0       21.7        0.0        0.0        0.0       0.00       48.2       0.00       0.31        0.0
6:35              195        0.0         91       21.8      226.0       21.8       25.0       20.3     1012.1       24.0       21.7        0.0        0.0        0.0       0.00       48.3       0.00       0.31        0.0
6:37              195        0.0         90       21.9      226.0       21.9       25.0       20.2     1012.1       24.0       21.7        0.0        0.0        0.0       0.00       48.4       0.00       0.31        0.0
6:40              195        0.0         90       21.9      226.0       21.9       25.0       20.2     1012.1       24.0       21.7        0.0        0.0        0.0       0.00       48.5       0.00       0.31        0.0
6:41              195        0.0         91       21.9      226.0       21.9       25.1       20.4     1012.1       24.0       21.7        0.0        0.0        0.0       0.00       48.6       0.00       0.31        0.0
6:44              195        0.0         91       21.9      226.0       21.9       25.1       20.4     1012.0       24.0       21.7        0.0        0.0        0.0       0.00       48.8       0.00       0.31        0.0
6:45              195        0.0         91       21.9      226.0       21.9       25.2       20.4     1012.0       24.0       21.7        0.0        0.0        0.0       0.00       48.9       0.00       0.31        0.0
6:48              195        0.0         91       21.9      226.0       21.9       25.2       20.4     1012.0       24.0       21.7        0.0        0.0        0.0       0.00       49.1       0.00       0.31        0.0
6:49              195        0.0         91       22.0      226.0       22.0       25.2       20.5     1012.0       24.0       21.7        0.0        0.0        0.0       0.00       49.2       0.00       0.31        0.0
6:52              195        0.0         91       22.0      226.0       22.0       25.2       20.5     1012.1       24.0       21.7        0.0        0.0        0.0       0.00       49.4       0.00       0.31        0.0
6:53              195        0.0         91       22.0      226.0       22.0       25.2       20.5     1012.1       24.0       21.7        0.0        0.0        0.0       0.00       49.6       0.00       0.31        0.0
6:56              195        0.0         90       22.0      226.0       22.0       25.1       20.3     1012.1       24.0       21.7        0.0        0.0        0.0       0.00       49.7       0.00       0.31        0.0
6:58              195        0.0         90       22.1      226.0       22.1       25.2       20.3     1012.1       24.0       21.7        0.0        0.0        0.0       0.00       49.8       0.00       0.31        0.0
7:00              195        0.0         90       22.1      226.0       22.1       25.2       20.3     1012.1       24.0       21.7        0.0        0.0        0.0       0.00       49.9       0.00       0.31        0.0
7:02              195        0.0         90       22.1      226.0       22.1       25.2       20.3     1012.1       24.0       21.7        0.0        0.0        0.0       0.00       50.1       0.00       0.31        0.0
7:04              195        0.0         90       22.1      226.0       22.1       25.2       20.4     1012.1       24.0       21.7        0.0        0.0        0.0       0.00       50.3       0.00       0.31        0.0
7:06              195        0.0         90       22.1      226.0       22.1       25.2       20.4     1012.0       24.0       21.7        0.0        0.0        0.0       0.00       50.5       0.00       0.31        0.0
7:08              195        0.0         90       22.1      226.0       22.1       25.2       20.4     1012.0       24.0       21.7        0.0        0.0        0.0       0.00       50.6       0.00       0.31        0.0
7:10              195        0.0         90       22.1      226.0       22.1       25.2       20.4     1012.0       24.0       21.7        0.0        0.0        0.0       0.00       50.7       0.00       0.31        0.0
7:12              195        0.0         90       22.2      226.0       22.2       25.3       20.5     1012.1       24.0       21.7        0.0        0.0        0.0       0.00       50.8       0.00       0.31        0.0
7:14              195        0.0         90       22.2      226.0       22.2       25.4       20.5     1012.0       24.0       21.7        0.0        0.0        0.0       0.00       50.9       0.00       0.31        0.0
7:16              195        0.0         90       22.3      226.0       22.3       25.4       20.6     1012.0       24.0       21.7        0.0        0.0        0.0       0.00       51.0       0.00       0.31        0.0
7:17              195        0.0         90       22.3      226.0       22.3       25.5       20.6     1012.0       24.0       21.7        0.0        0.0        0.0       0.00       51.1       0.00       0.31        0.0
7:20              195        0.0         90       22.4      226.0       22.4       25.5       20.7     1012.1       24.0       21.7        0.0        0.0        0.0       0.00       51.1       0.00       0.31        0.0
7:22              195        0.0         89       22.5      226.0       22.5       25.6       20.6     1012.1       24.0       21.7        0.0        0.0        0.0       0.00       51.1       0.00       0.31        0.0
7:24              195        0.0         89       22.6      226.0       22.6       25.6       20.7     1012.2       24.0       21.7        0.0        0.0        0.0       0.00       51.3       0.00       0.31        0.0
7:26              195        0.0         89       22.7      226.0       22.7       25.7       20.8     1012.3       24.0       21.7        0.0        0.0        0.0       0.00       51.3       0.00       0.31        0.0
7:28              195        0.0         89       22.8      226.0       22.8       25.8       20.9     1012.2       24.0       21.7        0.0        0.0        0.0       0.00       51.3       0.00       0.31        0.0
7:30              195        0.0         88       22.9      226.0       22.9       25.9       20.9     1012.2       24.0       21.7        0.0        0.0        0.0       0.00       51.3       0.00       0.31        0.0
7:31              195        0.0         87       23.0      226.0       23.0       25.9       20.7     1012.3       24.0       21.7        0.0        0.0        0.0       0.00       51.4       0.00       0.32        0.0
7:33              195        0.0         86       23.1      226.0       23.1       25.9       20.6     1012.2       24.0       21.7        0.0        0.0        0.0       0.00       51.4       0.00       0.32        0.0
7:36              195        0.0         85       23.2      226.0       23.2       25.9       20.5     1012.2       24.0       21.7        0.0        0.0        0.0       0.00       51.4       0.00       0.32        0.0
7:38              195        0.0         85       23.3      226.0       23.3       26.1       20.7     1012.3       24.0       21.7        0.0        0.0        0.0       0.00       51.4       0.00       0.32        0.0
7:40              195        0.0         84       23.4      226.0       23.4       26.1       20.6     1012.4       24.0       21.7        0.0        0.0        0.0       0.00       51.4       0.00       0.32        0.0
7:42              195        0.0         83       23.6      226.0       23.6       26.2       20.6     1012.4       24.0       21.7        0.0        0.0        0.0       0.00       51.5       0.00       0.32        0.0
7:43              195        0.0         83       23.7      226.0       23.7       26.3       20.7     1012.4       24.0       21.7        0.0        0.0        0.0       0.00       51.7       0.00       0.32        0.0
7:45              195        0.0         82       23.9      226.0       23.9       26.4       20.6     1012.4       24.0       21.7        0.0        0.0        0.0       0.00       51.8       0.00       0.34        0.0
7:48              195        0.0         81       24.1      226.0       24.1       26.5       20.6     1012.4       24.1       21.7        0.0        0.0        0.0       0.00       51.8       0.00       0.34        0.0
7:50              195        0.0         80       24.2      226.0       24.2       26.6       20.6     1012.4       24.2       21.7        0.0        0.0        0.0       0.00       51.8       0.00       0.34        0.0
7:52              195        0.0         79       24.4      226.0       24.4       26.7       20.5     1012.4       24.4       21.7        0.0        0.0        0.0       0.00       51.9       0.00       0.34        0.0
7:54              195        0.0         78       24.5      226.0       24.5       26.7       20.4     1012.4       24.5       21.7        0.0        0.0        0.0       0.00       52.2       0.00       0.34        0.0
7:55              195        0.0         77       24.6      226.0       24.6       26.7       20.3     1012.5       24.6       21.7        0.0        0.0        0.0       0.00       52.6       0.00       0.34        0.0
7:58              195        0.0         77       24.8      226.0       24.8       27.0       20.5     1012.6       24.8       21.7        0.0        0.0        0.0       0.00       52.8       0.00       0.34        0.0
8:00              195        0.0         76       25.0      226.0       25.0       27.1       20.5     1012.6       25.0       21.7        0.0        0.0        0.0       0.00       53.0       0.00       0.34        0.0
8:02              195        0.0         75       25.2      226.0       25.2       27.2       20.4     1012.5       25.2       21.7        0.0        0.0        0.0       0.00       53.4       0.00       0.37        0.0
8:03              195        0.0         75       25.3      226.0       25.3       27.3       20.5     1012.6       25.3       21.7        0.0        0.0        0.0       0.00       53.7       0.00       0.37        0.0
8:06              195        0.0         75       25.4      226.0       25.4       27.4       20.6     1012.6       25.4       21.7        0.0        0.0        0.0       0.00       54.0       0.00       0.37        0.0
8:08              195        0.0         74       25.4      226.0       25.4       27.4       20.5     1012.7       25.5       21.7        0.0        0.0        0.0       0.00       54.4       0.00       0.37        0.0
8:10              195        0.0         74       25.6      226.0       25.6       27.5       20.6     1012.7       25.6       21.7        0.0        0.0        0.0       0.00       54.7       0.00       0.37        0.0
8:12              195        0.0         73       25.6      226.0       25.6       27.5       20.4     1012.7       25.6       21.7        0.0        0.0        0.0       0.00       55.0       0.00       0.37        0.0
8:14              195        0.0         73       25.7      226.0       25.7       27.5       20.5     1012.6       25.7       21.7        0.0        0.0        0.0       0.00       55.5       0.00       0.37        0.0
8:15              195        0.0         73       25.7      226.0       25.7       27.5       20.5     1012.6       25.7       21.7        0.0        0.0        0.0       0.00       55.9       0.00       0.41        0.0
8:18              195        0.0         72       25.7      226.0       25.7       27.5       20.3     1012.7       25.7       21.7        0.0        0.0        0.0       0.00       56.2       0.00       0.41        0.0
8:19              195        0.0         72       25.8      226.0       25.8       27.6       20.4     1012.6       25.8       21.7        0.0        0.0        0.0       0.00       56.6       0.00       0.41        0.0
8:22              195        0.0         72       25.9      226.0       25.9       27.7       20.5     1012.6       25.9       21.7        0.0        0.0        0.0       0.00       56.9       0.00       0.41        0.0
8:24              195        0.0         72       26.1      226.0       26.1       27.9       20.7     1012.6       26.1       21.7        0.0        0.0        0.0       0.00       57.3       0.00       0.41        0.0
8:26              195        0.0         71       26.2      226.0       26.2       27.9       20.5     1012.6       26.2       21.7        0.0        0.0        0.0       0.00       57.7       0.00       0.41        0.0
8:27              195        0.0         69       26.2      226.0       26.2       27.8       20.1     1012.6       26.2       21.7        0.0        0.0        0.0       0.00       58.4       0.00       0.41        0.0
8:30              195        0.0         68       26.3      226.0       26.3       27.8       20.0     1012.7       26.3       21.7        0.0        0.0        0.0       0.00       59.0       0.00       0.41        0.0
8:32              195        0.0         67       26.3      226.0       26.3       27.8       19.7     1012.7       26.3       21.7        0.0        0.0        0.0       0.00       59.7       0.00       0.46        0.0
8:33              195        0.0         66       26.3      226.0       26.3       27.7       19.5     1012.7       26.4       21.7        0.0        0.0        0.0       0.00       60.5       0.00       0.46        0.0
8:36              195        0.0         67       26.4      226.0       26.4       27.8       19.8     1012.7       26.4       21.7        0.0        0.0        0.0       0.00       60.9       0.00       0.46        0.0
8:38              195        0.0         67       26.4      226.0       26.4       27.8       19.8     1012.7       26.4       21.7        0.0        0.0        0.0       0.00       61.8       0.00       0.46        0.0
8:40              195        0.0         67       26.4      226.0       26.4       27.8       19.8     1012.7       26.4       21.7        0.0        0.0        0.0       0.00       62.4       0.00       0.46        0.0
8:42              195        0.0         66       26.4      226.0       26.4       27.8       19.5     1012.6       26.4       21.7        0.0        0.0        0.0       0.00       62.8       0.00       0.46        0.0
8:44              195        0.0         65       26.3      226.0       26.3       27.6       19.2     1012.6       26.4       21.7        0.0        0.0        0.0       0.00       63.4       0.00       0.46        0.0
8:46              195        0.0         65       26.3      226.0       26.3       27.6       19.2     1012.7       26.4       21.7        0.0        0.0        0.0       0.00       64.0       0.00       0.50        0.0
8:48              195        0.0         65       26.4      226.0       26.4       27.7       19.3     1012.7       26.4       21.7        0.0        0.0        0.0       0.00       64.6       0.00       0.50        0.0
8:50              195        0.0         65       26.4      226.0       26.4       27.8       19.3     1012.6       26.4       21.7        0.0        0.0        0.0       0.00       65.1       0.00       0.50        0.0
8:51              195        0.0         65       26.5      226.0       26.5       27.8       19.4     1012.6       26.5       21.7        0.0        0.0        0.0       0.00       65.6       0.00       0.50        0.0
8:54              195        0.0         66       26.6      226.0       26.6       28.0       19.7     1012.6       26.6       21.7        0.0        0.0        0.0       0.00       66.3       0.00       0.50        0.0
8:55              195        0.0         66       26.6      226.0       26.6       28.0       19.7     1012.5       26.7       21.7        0.0        0.0        0.0       0.00       66.9       0.00       0.50        0.0
8:58              195        0.0         66       26.7      226.0       26.7       28.0       19.8     1012.5       26.7       21.7        0.0        0.0        0.0       0.00       67.3       0.00       0.50        0.0
9:00              195        0.0         66       26.7      226.0       26.7       28.1       19.8     1012.6       26.7       21.7        0.0        0.0        0.0       0.00       68.3       0.00       0.50        0.0
9:02              195        0.0         65       26.7      226.0       26.7       28.1       19.6     1012.5       26.7       21.7        0.0        0.0        0.0       0.00       69.2       0.00       0.55        0.0
9:04              195        0.0         65       26.8      226.0       26.8       28.1       19.7     1012.6       26.8       21.7        0.0        0.0        0.0       0.00       69.8       0.00       0.55        0.0
9:05              195        0.0         65       26.8      226.0       26.8       28.2       19.7     1012.6       26.8       21.7        0.0        0.0        0.0       0.00       70.4       0.00       0.55        0.0
9:08              195        0.0         65       26.9      226.0       26.9       28.3       19.8     1012.6       26.9       21.7        0.0        0.0        0.0       0.00       71.0       0.00       0.55        0.0
9:10              195        0.0         65       26.9      226.0       26.9       28.3       19.8     1012.6       26.9       21.7        0.0        0.0        0.0       0.00       71.8       0.00       0.55        0.0
9:12              195        0.0         64       27.0      226.0       27.0       28.4       19.6     1012.6       27.0       21.7        0.0        0.0        0.0       0.00       72.8       0.00       0.55        0.0
9:14              195        0.0         64       27.0      226.0       27.0       28.4       19.6     1012.6       27.0       21.7        0.0        0.0        0.0       0.00       73.3       0.00       0.55        0.0
9:16              195        0.0         62       27.1      226.0       27.1       28.3       19.2     1012.6       27.1       21.7        0.0        0.0        0.0       0.00       74.1       0.00       0.60        0.0
9:18              195        0.0         62       27.2      226.0       27.2       28.5       19.3     1012.6       27.2       21.7        0.0        0.0        0.0       0.00       75.0       0.00       0.60        0.0
9:20              195        0.0         63       27.2      226.0       27.2       28.6       19.6     1012.6       27.2       21.7        0.0        0.0        0.0       0.00       75.5       0.00       0.60        0.0
9:22              195        0.0         63       27.3      226.0       27.3       28.8       19.7     1012.7       27.3       21.7        0.0        0.0        0.0       0.00       76.3       0.00       0.60        0.0
9:24              195        0.0         63       27.3      226.0       27.3       28.8       19.7     1012.7       27.3       21.7        0.0        0.0        0.0       0.00       77.1       0.00       0.60        0.0
9:26              195        0.0         63       27.4      226.0       27.4       28.9       19.7     1012.7       27.4       21.7        0.0        0.0        0.0       0.00       77.9       0.00       0.60        0.0
9:28              195        0.0         62       27.4      226.0       27.4       28.8       19.5     1012.7       27.4       21.7        0.0        0.0        0.0       0.00       78.6       0.00       0.60        0.0
9:30              195        0.0         61       27.5      226.0       27.5       28.8       19.3     1012.6       27.5       21.7        0.0        0.0        0.0       0.00       79.1       0.00       0.60        0.0
9:32              195        0.0         61       27.6      226.0       27.6       28.9       19.4     1012.7       27.6       21.7        0.0        0.0        0.0       0.00       79.7       0.00       0.66        0.0
9:34              195        0.0         59       27.6      226.0       27.6       28.8       18.9     1012.6       27.6       21.7        0.0        0.0        0.0       0.00       80.5       0.00       0.66        0.0
9:36              195        0.0         60       27.7      226.0       27.7       29.0       19.3     1012.7       27.7       21.7        0.0        0.0        0.0       0.00       81.1       0.00       0.66        0.0
9:38              195        0.0         61       27.8      226.0       27.8       29.2       19.6     1012.7       27.8       21.7        0.0        0.0        0.0       0.00       81.8       0.00       0.66        0.0
9:40              195        0.0         61       27.8      226.0       27.8       29.3       19.6     1012.7       27.8       21.7        0.0        0.0        0.0       0.00       82.4       0.00       0.66        0.0
9:42              195        0.0         62       27.8      226.0       27.8       29.4       19.9     1012.6       27.8       21.7        0.0        0.0        0.0       0.00       83.0       0.00       0.66        0.0
9:44              195        0.0         62       27.9      226.0       27.9       29.5       19.9     1012.7       27.9       21.7        0.0        0.0        0.0       0.00       83.8       0.00       0.66        0.0
9:46              195        0.0         62       28.0      226.0       28.0       29.7       20.0     1012.7       28.0       21.7        0.0        0.0        0.0       0.00       84.6       0.00       0.72        0.0
9:48              195        0.0         61       28.1      226.0       28.1       29.7       19.9     1012.7       28.1       21.7        0.0        0.0        0.0       0.00       85.5       0.00       0.72        0.0
9:49              195        0.0         61       28.2      226.0       28.2       29.9       20.0     1012.6       28.2       21.7        0.0        0.0        0.0       0.00       86.2       0.00       0.72        0.0
9:52              195        0.0         61       28.3      226.0       28.3       30.1       20.1     1012.6       28.3       21.7        0.0        0.0        0.0       0.00       87.0       0.00       0.72        0.0
9:53              195        0.0         61       28.4      226.0       28.4       30.2       20.1     1012.6       28.4       21.7        0.0        0.0        0.0       0.00       87.7       0.00       0.72        0.0
9:56              195        0.0         62       28.4      226.0       28.4       30.3       20.4     1012.6       28.4       21.7        0.0        0.0        0.0       0.00       88.3       0.00       0.72        0.0
9:58              195        0.0         61       28.4      226.0       28.4       30.3       20.2     1012.6       28.4       21.7        0.0        0.0        0.0       0.00       89.2       0.00       0.72        0.0
10:00             195        0.0         60       28.4      226.0       28.4       30.1       19.9     1012.5       28.4       21.7        0.0        0.0        0.0       0.00       90.0       0.00       0.72        0.0
10:02             185        0.0         60       28.5      226.0       28.5       30.2       20.0     1012.6       28.5       21.7        0.0        0.0        0.0       0.00       90.6       0.00       0.79        0.0
10:04             195        0.0         60       28.5      226.0       28.5       30.2       20.0     1012.5       28.5       21.7        0.0        0.0        0.0       0.00       91.3       0.00       0.79        0.0
10:06             193        0.0         60       28.5      226.0       28.5       30.2       20.0     1012.5       28.6       21.7        0.0        0.0        0.0       0.00       91.8       0.00       0.79        0.0
10:08             184        0.0         61       28.6      226.0       28.6       30.4       20.3     1012.4       28.6       21.7        0.0        0.0        0.0       0.00       92.4       0.00       0.79        0.0
10:10             182        0.0         61       28.6      226.0       28.6       30.4       20.3     1012.4       28.6       21.7        0.0        0.0        0.0       0.00       92.9       0.00       0.79        0.0
10:12             185        0.0         61       28.6      226.0       28.6       30.5       20.4     1012.5       28.6       21.7        0.0        0.0        0.0       0.00       93.5       0.00       0.79        0.0
10:14             191        0.0         61       28.7      226.0       28.7       30.6       20.4     1012.6       28.7       21.7        0.0        0.0        0.0       0.00       94.0       0.00       0.79        0.0
10:16             178        0.0         60       28.7      226.0       28.7       30.5       20.1     1012.6       28.7       21.7        0.0        0.0        0.0       0.00       94.7       0.00       0.86        0.0
10:18             177        0.0         60       28.7      226.0       28.7       30.6       20.2     1012.6       28.7       21.7        0.0        0.0        0.0       0.00       95.2       0.00       0.86        0.0
10:20             196        0.0         59       28.8      226.0       28.8       30.5       20.0     1012.7       28.8       21.7        0.0        0.0        0.0       0.00       95.7       0.00       0.86        0.0
10:21             179        0.0         60       28.8      226.0       28.8       30.7       20.2     1012.7       28.8       21.7        0.0        0.0        0.0       0.00       96.6       0.00       0.86        0.0
10:24             183        0.0         60       28.8      226.0       28.8       30.8       20.3     1012.7       28.8       21.7        0.0        0.0        0.0       0.00       97.0       0.00       0.86        0.0
10:26             186        0.0         59       28.8      226.0       28.8       30.6       20.0     1012.7       28.8       21.7        0.0        0.0        0.0       0.00       97.4       0.00       0.86        0.0
10:28             204        0.0         58       28.8      226.0       28.8       30.5       19.8     1012.7       28.8       21.7        0.0        0.0        0.0       0.00       98.0       0.00       0.86        0.0
10:30             189        0.0         58       28.9      226.0       28.9       30.6       19.8     1012.6       28.9       21.7        0.0        0.0        0.0       0.00       98.7       0.00       0.86        0.0
10:32             200        0.0         56       28.9      226.0       28.9       30.4       19.3     1012.7       28.9       21.7        0.0        0.0        0.0       0.00       99.5       0.00       0.93        0.0
10:34             181        0.0         56       29.1      226.0       29.1       30.5       19.4     1012.7       29.1       21.7        0.0        0.0        0.0       0.00      100.1       0.00       0.93        0.0
10:36             198        0.0         56       29.2      226.0       29.2       30.7       19.5     1012.8       29.2       21.7        0.0        0.0        0.0       0.00      100.7       0.00       0.93        0.0
10:38             196        0.0         56       29.3      226.0       29.3       30.9       19.6     1012.8       29.3       21.7        0.0        0.0        0.0       0.00      101.4       0.00       0.93        0.0
10:40             178        0.0         56       29.3      226.0       29.3       31.0       19.7     1012.8       29.3       21.7        0.0        0.0        0.0       0.00      101.9       0.00       0.93        0.0
10:42             190        0.0         56       29.4      226.0       29.4       31.1       19.8     1012.7       29.4       21.7        0.0        0.0        0.0       0.00      102.4       0.00       0.93        0.0
10:44             190        0.0         56       29.6      226.0       29.6       31.3       19.9     1012.6       29.6       21.7        0.0        0.0        0.0       0.00      103.0       0.00       0.93        0.0
10:46             178        0.0         56       29.7      226.0       29.7       31.5       20.0     1012.7       29.7       21.7        0.0        0.0        0.0       0.00      103.6       0.00       1.01        0.0
10:48             195        0.0         53       29.7      226.0       29.7       31.1       19.1     1012.7       29.7       21.7        0.0        0.0        0.0       0.00      104.2       0.00       1.01        0.0
10:50             203        0.0         53       29.7      226.0       29.7       31.1       19.1     1012.5       29.7       21.7        0.0        0.0        0.0       0.00      104.7       0.00       1.01        0.0
10:51             194        0.0         53       29.8      226.0       29.8       31.2       19.2     1012.7       29.8       21.7        0.0        0.0        0.0       0.00      105.2       0.00       1.01        0.0
10:54             195        0.0         53       29.8      226.0       29.8       31.2       19.2     1012.6       29.8       21.7        0.0        0.0        0.0       0.00      105.6       0.00       1.01        0.0
10:56             199        0.0         53       29.8      226.0       29.8       31.3       19.2     1012.6       29.8       21.7        0.0        0.0        0.0       0.00      106.0       0.00       1.01        0.0
10:58             199        0.0         52       29.8      226.0       29.8       31.1       18.9     1012.6       29.8       21.7        0.0        0.0        0.0       0.00      106.2       0.00       1.01        0.0
11:00             198        0.0         53       29.9      226.0       29.9       31.4       19.3     1012.6       29.9       21.7        0.0        0.0        0.0       0.00      106.5       0.00       1.01        0.0
11:02             211        0.0         51       29.9      226.0       29.9       31.1       18.7     1012.5       29.9       21.7        0.0        0.0        0.0       0.00      107.1       0.00       1.09        0.0
11:04             211        0.0         50       30.0      226.0       30.0       31.0       18.5     1012.7       30.0       21.7        0.0        0.0        0.0       0.00      107.5       0.00       1.09        0.0
11:06             211        0.0         51       30.1      226.0       30.1       31.3       18.8     1012.5       30.1       21.7        0.0        0.0        0.0       0.00      107.6       0.00       1.09        0.0
11:08             190        0.0         52       30.1      226.0       30.1       31.5       19.2     1012.5       30.1       21.7        0.0        0.0        0.0       0.00      108.2       0.00       1.09        0.0
11:10             184        0.0         51       30.3      226.0       30.3       31.6       19.0     1012.6       30.3       21.7        0.0        0.0        0.0       0.00      108.7       0.00       1.09        0.0
11:12             205        0.0         50       30.4      226.0       30.4       31.6       18.8     1012.5       30.4       21.7        0.0        0.0        0.0       0.00      109.3       0.00       1.09        0.0
11:14             205        0.0         50       30.5      226.0       30.5       31.8       18.9     1012.5       30.5       21.7        0.0        0.0        0.0       0.00      109.8       0.00       1.09        0.0
11:16             205        0.0         50       30.6      226.0       30.6       31.9       19.0     1012.5       30.6       21.7        0.0        0.0        0.0       0.00      110.2       0.00       1.18        0.0
11:18             191        0.0         50       30.6      226.0       30.6       32.0       19.0     1012.4       30.6       21.7        0.0        0.0        0.0       0.00      111.0       0.00       1.18        0.0
11:20             197        0.0         50       30.7      226.0       30.7       32.2       19.1     1012.4       30.7       21.7        0.0        0.0        0.0       0.00      111.7       0.00       1.18        0.0
11:22             196        0.0         50       30.8      226.0       30.8       32.3       19.2     1012.3       30.8       21.7        0.0        0.0        0.0       0.00      112.4       0.00       1.18        0.0
11:24             225        0.0         50       30.9      226.0       30.9       32.4       19.3     1012.2       30.9       21.7        0.0        0.0        0.0       0.00      112.8       0.00       1.18        0.0
11:26             197        0.0         50       30.9      226.0       30.9       32.5       19.3     1012.2       30.9       21.7        0.0        0.0        0.0       0.00      113.4       0.00       1.18        0.0
11:28             203        0.0         49       31.0      226.0       31.0       32.4       19.0     1012.2       31.0       21.7        0.0        0.0        0.0       0.00      113.9       0.00       1.18        0.0
11:30             232        0.0         50       31.1      226.0       31.1       32.7       19.4     1012.2       31.1       21.7        0.0        0.0        0.0       0.00      114.5       0.00       1.18        0.0
11:32             202        0.0         50       31.1      226.0       31.1       32.8       19.5     1012.2       31.1       21.7        0.0        0.0        0.0       0.00      114.9       0.00       1.27        0.0
11:34             215        0.0         50       31.2      226.0       31.2       33.0       19.6     1012.2       31.2       21.7        0.0        0.0        0.0       0.00      115.5       0.00       1.27        0.0
11:36             227        0.0         48       31.3      226.0       31.3       32.7       19.0     1012.2       31.3       21.7        0.0        0.0        0.0       0.00      116.1       0.00       1.27        0.0
11:38             229        0.0         48       31.3      226.0       31.3       32.7       19.0     1012.2       31.3       21.7        0.0        0.0        0.0       0.00      116.4       0.00       1.27        0.0
11:39             231        0.0         48       31.3      226.0       31.3       32.7       19.0     1012.2       31.3       21.7        0.0        0.0        0.0       0.00      116.8       0.00       1.27        0.0
11:41             233        0.0         48       31.2      226.0       31.2       32.6       18.9     1012.2       31.3       21.7        0.0        0.0        0.0       0.00      117.2       0.00       1.27        0.0
11:44             233        0.0         46       31.2      226.0       31.2       32.1       18.2     1012.2       31.3       21.7        0.0        0.0        0.0       0.00      117.8       0.00       1.27        0.0
11:46             211        0.0         46       31.2      226.0       31.2       32.2       18.2     1012.2       31.3       21.7        0.0        0.0        0.0       0.00      118.5       0.00       1.37        0.0
11:48             229        0.0         46       31.3      226.0       31.3       32.3       18.3     1012.1       31.3       21.7        0.0        0.0        0.0       0.00      119.0       0.00       1.37        0.0
11:50             229        0.0         45       31.3      226.0       31.3       32.2       18.0     1012.1       31.3       21.7        0.0        0.0        0.0       0.00      119.2       0.00       1.37        0.0
11:52             229        0.0         46       31.4      226.0       31.4       32.5       18.4     1011.9       31.4       21.7        0.0        0.0        0.0       0.00      119.4       0.00       1.37        0.0
11:54             229        0.0         44       31.5      226.0       31.5       32.3       17.8     1011.9       31.5       21.7        0.0        0.0        0.0       0.00      119.9       0.00       1.37        0.0
11:56             229        0.0         43       31.6      226.0       31.6       32.2       17.5     1011.8       31.6       21.7        0.0        0.0        0.0       0.00      120.7       0.00       1.37        0.0
11:58             229        0.0         42       31.6      226.0       31.6       32.1       17.1     1011.9       31.6       21.7        0.0        0.0        0.0       0.00      121.4       0.00       1.37        0.0
12:00             229        0.0         41       31.7      226.0       31.7       32.0       16.8     1011.9       31.7       21.7        0.0        0.0        0.0       0.00      121.6       0.00       1.37        0.0
12:02             214        0.0         40       31.8      226.0       31.8       32.0       16.6     1012.0       31.8       21.7        0.0        0.0        0.0       0.00      122.3       0.00       1.47        0.0
12:04             214        0.0         39       31.9      226.0       31.9       32.0       16.3     1011.9       31.9       21.7        0.0        0.0        0.0       0.00      122.6       0.00       1.47        0.0
12:06             214        0.0         39       32.1      226.0       32.1       32.2       16.4     1011.9       32.1       21.7        0.0        0.0        0.0       0.00      122.8       0.00       1.47        0.0
12:08             214        0.0         38       32.2      226.0       32.2       32.2       16.1     1011.8       32.2       21.7        0.0        0.0        0.0       0.00      123.0       0.00       1.47        0.0
12:10             214        0.0         38       32.3      226.0       32.3       32.4       16.2     1011.9       32.3       21.7        0.0        0.0        0.0       0.00      123.2       0.00       1.47        0.0
12:12             219        0.0         35       32.4      226.0       32.4       32.0       15.0     1011.9       32.4       21.7        0.0        0.0        0.0       0.00      123.5       0.00       1.47        0.0
12:14             222        0.0         35       32.6      226.0       32.6       32.2       15.1     1011.9       32.6       21.7        0.0        0.0        0.0       0.00      123.8       0.00       1.47        0.0
12:16             222        0.0         35       32.6      226.0       32.6       32.3       15.2     1011.9       32.6       21.7        0.0        0.0        0.0       0.00      124.1       0.00       1.58        0.0
12:18             238        0.0         36       32.6      226.0       32.6       32.4       15.6     1011.8       32.6       21.7        0.0        0.0        0.0       0.00      124.5       0.00       1.58        0.0
12:20             221        0.0         37       32.7      226.0       32.7       32.7       16.1     1011.7       32.7       21.7        0.0        0.0        0.0       0.00      125.1       0.00       1.58        0.0
12:22             252        0.0         37       32.6      226.0       32.6       32.6       16.0     1011.8       32.7       21.7        0.0        0.0        0.0       0.00      125.7       0.00       1.58        0.0
12:24             246        0.0         39       32.6      226.0       32.6       32.9       16.8     1011.7       32.7       21.7        0.0        0.0        0.0       0.00      126.0       0.00       1.58        0.0
12:26             246        0.0         39       32.6      226.0       32.6       32.9       16.8     1011.6       32.7       21.7        0.0        0.0        0.0       0.00      126.2       0.00       1.58        0.0
12:28             246        0.0         39       32.6      226.0       32.6       32.9       16.8     1011.5       32.7       21.7        0.0        0.0        0.0       0.00      126.4       0.00       1.58        0.0
12:30             246        0.0         38       32.6      226.0       32.6       32.8       16.5     1011.7       32.7       21.7        0.0        0.0        0.0       0.00      126.8       0.00       1.58        0.0
12:32             246        0.0         38       32.7      226.0       32.7       32.9       16.5     1011.6       32.7       21.7        0.0        0.0        0.0       0.00      126.9       0.00       1.69        0.0
12:34             240        0.0         38       32.7      226.0       32.7       33.0       16.6     1011.6       32.7       21.7        0.0        0.0        0.0       0.00      127.3       0.00       1.69        0.0
12:36             217        0.0         38       32.8      226.0       32.8       33.1       16.7     1011.5       32.8       21.7        0.0        0.0        0.0       0.00      128.0       0.00       1.69        0.0
12:38             221        0.0         38       32.9      226.0       32.9       33.2       16.7     1011.5       32.9       21.7        0.0        0.0        0.0       0.00      128.5       0.00       1.69        0.0
12:40             221        0.0         37       32.9      226.0       32.9       33.1       16.3     1011.5       32.9       21.7        0.0        0.0        0.0       0.00      128.8       0.00       1.69        0.0
12:42             221        0.0         38       33.1      226.0       33.1       33.5       16.9     1011.4       33.1       21.7        0.0        0.0        0.0       0.00      128.9       0.00       1.69        0.0
12:44             225        0.0         39       33.1      226.0       33.1       33.7       17.3     1011.5       33.1       21.7        0.0        0.0        0.0       0.00      129.0       0.00       1.69        0.0
12:46             211        0.0         37       33.3      226.0       33.3       33.6       16.6     1011.4       33.3       21.7        0.0        0.0        0.0       0.00      129.4       0.00       1.81        0.0
12:48             201        0.0         36       33.4      226.0       33.4       33.6       16.3     1011.4       33.4       21.7        0.0        0.0        0.0       0.00      129.9       0.00       1.81        0.0
12:49             201        0.0         35       33.7      226.0       33.7       33.8       16.1     1011.4       33.7       21.7        0.0        0.0        0.0       0.00      130.7       0.00       1.81        0.0
12:52             198        0.0         34       33.8      226.0       33.8       33.8       15.8     1011.3       33.8       21.7        0.0        0.0        0.0       0.00      131.4       0.00       1.81        0.0
12:54             198        0.0         33       33.9      226.0       33.9       33.8       15.4     1011.3       33.9       21.7        0.0        0.0        0.0       0.00      131.7       0.00       1.81        0.0
12:56             203        0.0         32       34.1      226.0       34.1       33.7       15.0     1011.3       34.1       21.7        0.0        0.0        0.0       0.00      132.1       0.00       1.81        0.0
12:58             202        0.0         31       34.2      226.0       34.2       33.7       14.6     1011.3       34.2       21.7        0.0        0.0        0.0       0.00      132.8       0.00       1.81        0.0
13:00             211        0.0         31       34.2      226.0       34.2       33.8       14.7     1011.3       34.2       21.7        0.0        0.0        0.0       0.00      133.6       0.00       1.81        0.0
13:02             209        0.0         29       34.3      226.0       34.3       33.6       13.8     1011.4       34.3       21.7        0.0        0.0        0.0       0.00      134.4       0.00       1.94        0.0
13:03             218        0.0         27       34.4      226.0       34.4       33.3       12.7     1011.4       34.4       21.7        0.0        0.0        0.0       0.00      135.5       0.00       1.94        0.0
13:06             238        0.0         26       34.4      226.0       34.4       33.2       12.2     1011.3       34.4       21.7        0.0        0.0        0.0       0.00      136.0       0.00       1.94        0.0
13:08             208        0.0         26       34.4      226.0       34.4       33.1       12.1     1011.3       34.4       21.7        0.0        0.0        0.0       0.00      136.5       0.00       1.94        0.0
13:10             220        0.0         25       34.4      226.0       34.4       33.1       11.6     1011.3       34.4       21.7        0.0        0.0        0.0       0.00      137.2       0.00       1.94        0.0
13:12             217        0.0         25       34.5      226.0       34.5       33.1       11.6     1011.2       34.5       21.7        0.0        0.0        0.0       0.00      137.5       0.00       1.94        0.0
13:13             216        0.0         23       34.5      226.0       34.5       32.8       10.4     1011.1       34.5       21.7        0.0        0.0        0.0       0.00      137.7       0.00       1.94        0.0
13:16             218        0.0         23       34.6      226.0       34.6       33.0       10.5     1011.2       34.6       21.7        0.0        0.0        0.0       0.00      137.9       0.00       2.07        0.0
13:18             229        0.0         21       34.6      226.0       34.6       32.7        9.1     1011.2       34.6       21.7        0.0        0.0        0.0       0.00      138.2       0.00       2.07        0.0
13:20             261        0.0         20       34.6      226.0       34.6       32.6        8.4     1011.1       34.6       21.7        0.0        0.0        0.0       0.00      138.4       0.00       2.07        0.0
13:22             263        0.0         20       34.6      226.0       34.6       32.6        8.3     1011.0       34.6       21.7        0.0        0.0        0.0       0.00      138.6       0.00       2.07        0.0
13:24             247        0.0         20       34.7      226.0       34.7       32.7        8.4     1011.1       34.7       21.7        0.0        0.0        0.0       0.00      138.8       0.00       2.07        0.0
13:25             201        0.0         19       34.8      226.0       34.8       32.7        7.8     1011.2       34.8       21.7        0.0        0.0        0.0       0.00      139.5       0.00       2.07        0.0
13:28             205        0.0         19       34.9      226.0       34.9       32.9        7.9     1011.2       34.9       21.7        0.0        0.0        0.0       0.00      139.7       0.00       2.07        0.0
13:30             202        0.0         19       35.1      226.0       35.1       33.1        8.0     1011.2       35.1       21.7        0.0        0.0        0.0       0.00      140.1       0.00       2.07        0.0
13:32             199        0.0         18       35.3      226.0       35.3       33.1        7.4     1010.9       35.3       21.7        0.0        0.0        0.0       0.00      140.6       0.00       2.20        0.0
13:33             199        0.0         18       35.4      226.0       35.4       33.2        7.5     1010.9       35.4       21.7        0.0        0.0        0.0       0.00      141.1       0.00       2.20        0.0
13:35             217        0.0         18       35.5      226.0       35.5       33.4        7.6     1011.0       35.5       21.7        0.0        0.0        0.0       0.00      141.6       0.00       2.20        0.0
13:38             223        0.0         17       35.6      226.0       35.6       33.4        6.8     1011.0       35.6       21.7        0.0        0.0        0.0       0.00      141.8       0.00       2.20        0.0
13:40             236        0.0         15       35.7      226.0       35.7       33.2        5.1     1010.9       35.7       21.7        0.0        0.0        0.0       0.00      142.0       0.00       2.20        0.0
13:42             259        0.0         13       35.7      226.0       35.7       33.1        3.0     1010.9       35.7       21.7        0.0        0.0        0.0       0.00      142.4       0.00       2.20        0.0
13:44             265        0.0         13       35.5      226.0       35.5       32.9        2.9     1010.9       35.7       21.7        0.0        0.0        0.0       0.00      142.7       0.00       2.20        0.0
13:45             238        0.0         13       35.4      226.0       35.4       32.9        2.9     1010.9       35.7       21.7        0.0        0.0        0.0       0.00      142.9       0.00       2.34        0.0
13:48             241        0.0         13       35.4      226.0       35.4       32.8        2.8     1010.9       35.7       21.7        0.0        0.0        0.0       0.00      143.2       0.00       2.34        0.0
13:50             250        0.0         13       35.4      226.0       35.4       32.8        2.8     1010.9       35.7       21.7        0.0        0.0        0.0       0.00      143.5       0.00       2.34        0.0
13:51             252        0.0         13       35.3      226.0       35.3       32.8        2.8     1010.8       35.7       21.7        0.0        0.0        0.0       0.00      143.6       0.00       2.34        0.0
13:54             252        0.0         13       35.3      226.0       35.3       32.7        2.7     1010.7       35.7       21.7        0.0        0.0        0.0       0.00      143.8       0.00       2.34        0.0
13:55             252        0.0         14       35.4      226.0       35.4       32.9        3.9     1010.7       35.7       21.7        0.0        0.0        0.0       0.00      143.9       0.00       2.34        0.0
13:58             251        0.0         14       35.4      226.0       35.4       32.9        3.9     1010.7       35.7       21.7        0.0        0.0        0.0       0.00      144.1       0.00       2.34        0.0
14:00             260        0.0         14       35.6      226.0       35.6       33.0        4.0     1010.7       35.7       21.7        0.0        0.0        0.0       0.00      144.3       0.00       2.34        0.0
14:02             260        0.0         14       35.7      226.0       35.7       33.2        4.1     1010.7       35.7       21.7        0.0        0.0        0.0       0.00      144.5       0.00       2.49        0.0
14:04             207        0.0         13       35.9      226.0       35.9       33.3        3.2     1010.7       35.9       21.7        0.0        0.0        0.0       0.00      145.1       0.00       2.49        0.0
14:06             209        0.0         12       36.0      226.0       36.0       33.3        2.2     1010.7       36.0       21.7        0.0        0.0        0.0       0.00      145.7       0.00       2.49        0.0
14:08             210        0.0         13       36.1      226.0       36.1       33.5        3.4     1010.7       36.1       21.7        0.0        0.0        0.0       0.00      145.8       0.00       2.49        0.0
14:09             236        0.0         13       36.2      226.0       36.2       33.6        3.5     1010.6       36.2       21.7        0.0        0.0        0.0       0.00      146.1       0.00       2.49        0.0
14:12             236        0.0         13       36.2      226.0       36.2       33.6        3.4     1010.7       36.2       21.7        0.0        0.0        0.0       0.00      146.3       0.00       2.49        0.0
14:14             234        0.0         13       36.1      226.0       36.1       33.5        3.4     1010.6       36.2       21.7        0.0        0.0        0.0       0.00      146.4       0.00       2.49        0.0
14:16             230        0.0         13       36.2      226.0       36.2       33.6        3.4     1010.6       36.2       21.7        0.0        0.0        0.0       0.00      146.6       0.00       2.63        0.0
14:18             265        0.0         13       36.2      226.0       36.2       33.6        3.5     1010.6       36.2       21.7        0.0        0.0        0.0       0.00      147.0       0.00       2.63        0.0
14:20             269        0.0         12       36.2      226.0       36.2       33.5        2.3     1010.6       36.2       21.7        0.0        0.0        0.0       0.00      147.3       0.00       2.63        0.0
14:22             268        0.0         13       36.1      226.0       36.1       33.5        3.3     1010.6       36.2       21.7        0.0        0.0        0.0       0.00      147.5       0.00       2.63        0.0
14:23             267        0.0         13       36.1      226.0       36.1       33.5        3.3     1010.6       36.2       21.7        0.0        0.0        0.0       0.00      147.7       0.00       2.63        0.0
14:26             232        0.0         13       36.1      226.0       36.1       33.5        3.4     1010.6       36.2       21.7        0.0        0.0        0.0       0.00      147.9       0.00       2.63        0.0
14:28             224        0.0         13       36.3      226.0       36.3       33.7        3.5     1010.6       36.3       21.7        0.0        0.0        0.0       0.00      148.5       0.00       2.63        0.0
14:30             258        0.0         13       36.4      226.0       36.4       33.8        3.6     1010.6       36.4       21.7        0.0        0.0        0.0       0.00      148.8       0.00       2.63        0.0
14:32             254        0.0         12       36.4      226.0       36.4       33.7        2.5     1010.6       36.4       21.7        0.0        0.0        0.0       0.00      149.1       0.00       2.78        0.0
14:34             256        0.0         12       36.3      226.0       36.3       33.7        2.4     1010.6       36.4       21.7        0.0        0.0        0.0       0.00      149.5       0.00       2.78        0.0
14:36             250        0.0         12       36.2      226.0       36.2       33.6        2.3     1010.6       36.4       21.7        0.0        0.0        0.0       0.00      149.8       0.00       2.78        0.0
14:38             241        0.0         12       36.2      226.0       36.2       33.5        2.3     1010.5       36.4       21.7        0.0        0.0        0.0       0.00      150.0       0.00       2.78        0.0
14:40             244        0.0         13       36.2      226.0       36.2       33.6        3.5     1010.5       36.4       21.7        0.0        0.0        0.0       0.00      150.3       0.00       2.78        0.0
14:42             243        0.0         13       36.3      226.0       36.3       33.7        3.5     1010.4       36.4       21.7        0.0        0.0        0.0       0.00      150.5       0.00       2.78        0.0
14:44             227        0.0         12       36.3      226.0       36.3       33.7        2.4     1010.4       36.4       21.7        0.0        0.0        0.0       0.00      151.0       0.00       2.78        0.0
14:46             188        0.0         12       36.4      226.0       36.4       33.8        2.5     1010.3       36.4       21.7        0.0        0.0        0.0       0.00      151.5       0.00       2.93        0.0
14:48             180        0.0         12       36.6      226.0       36.6       33.9        2.6     1010.2       36.6       21.7        0.0        0.0        0.0       0.00      151.8       0.00       2.93        0.0
14:50             186        0.0         13       36.7      226.0       36.7       34.1        3.8     1010.3       36.7       21.7        0.0        0.0        0.0       0.00      152.1       0.00       2.93        0.0
14:51             215        0.0         13       36.8      226.0       36.8       34.2        3.9     1010.4       36.8       21.7        0.0        0.0        0.0       0.00      152.6       0.00       2.93        0.0
14:54             220        0.0         13       36.8      226.0       36.8       34.2        3.9     1010.4       36.8       21.7        0.0        0.0        0.0       0.00      152.9       0.00       2.93        0.0
14:55             215        0.0         13       36.8      226.0       36.8       34.2        3.9     1010.4       36.8       21.7        0.0        0.0        0.0       0.00      153.3       0.00       2.93        0.0
14:58             217        0.0         13       36.8      226.0       36.8       34.2        3.9     1010.4       36.8       21.7        0.0        0.0        0.0       0.00      153.9       0.00       2.93        0.0
15:00             208        0.0         14       36.8      226.0       36.8       34.3        4.9     1010.4       36.8       21.7        0.0        0.0        0.0       0.00      154.2       0.00       2.93        0.0
15:01             202        0.0         13       36.8      226.0       36.8       34.2        3.9     1010.3       36.8       21.7        0.0        0.0        0.0       0.00      154.6       0.00       3.09        0.0
15:04             186        0.0         13       36.9      226.0       36.9       34.3        4.0     1010.3       36.9       21.7        0.0        0.0        0.0       0.00      155.1       0.00       3.09        0.0
15:06             211        0.0         14       37.0      226.0       37.0       34.5        5.1     1010.2       37.0       21.7        0.0        0.0        0.0       0.00      155.9       0.00       3.09        0.0
15:08             242        0.0         14       37.1      226.0       37.1       34.6        5.2     1010.3       37.1       21.7        0.0        0.0        0.0       0.00      156.5       0.00       3.09        0.0
15:10             240        0.0         14       37.1      226.0       37.1       34.6        5.2     1010.3       37.1       21.7        0.0        0.0        0.0       0.00      156.7       0.00       3.09        0.0
15:12             246        0.0         13       37.1      226.0       37.1       34.5        4.1     1010.3       37.1       21.7        0.0        0.0        0.0       0.00      156.9       0.00       3.09        0.0
15:14             246        0.0         14       37.0      226.0       37.0       34.5        5.1     1010.2       37.1       21.7        0.0        0.0        0.0       0.00      157.0       0.00       3.09        0.0
15:15             243        0.0         14       37.1      226.0       37.1       34.6        5.2     1010.2       37.1       21.7        0.0        0.0        0.0       0.00      157.3       0.00       3.24        0.0
15:18             207        0.0         15       37.0      226.0       37.0       34.6        6.1     1010.2       37.1       21.7        0.0        0.0        0.0       0.00      157.6       0.00       3.24        0.0
15:20             220        0.0         14       36.9      226.0       36.9       34.5        5.1     1010.2       37.1       21.7        0.0        0.0        0.0       0.00      158.8       0.00       3.24        0.0
15:22             234        0.0         15       36.9      226.0       36.9       34.6        6.1     1010.1       37.1       21.7        0.0        0.0        0.0       0.00      159.8       0.00       3.24        0.0
15:24             280        0.0         15       37.0      226.0       37.0       34.6        6.1     1010.2       37.1       21.7        0.0        0.0        0.0       0.00      160.1       0.00       3.24        0.0
15:26             258        0.0         15       36.9      226.0       36.9       34.5        6.0     1010.1       37.1       21.7        0.0        0.0        0.0       0.00      160.3       0.00       3.24        0.0
15:28             217        0.0         15       36.8      226.0       36.8       34.5        6.0     1010.1       37.1       21.7        0.0        0.0        0.0       0.00      160.7       0.00       3.24        0.0
15:30             208        0.0         14       36.9      226.0       36.9       34.4        5.0     1010.0       37.1       21.7        0.0        0.0        0.0       0.00      161.8       0.00       3.24        0.0
15:32             238        0.0         15       37.0      226.0       37.0       34.6        6.1     1010.0       37.1       21.7        0.0        0.0        0.0       0.00      162.4       0.00       3.40        0.0
15:33             237        0.0         14       37.1      226.0       37.1       34.6        5.2     1010.0       37.1       21.7        0.0        0.0        0.0       0.00      162.8       0.00       3.40        0.0
15:36             227        0.0         15       37.1      226.0       37.1       34.7        6.2     1010.0       37.1       21.7        0.0        0.0        0.0       0.00      163.0       0.00       3.40        0.0
15:38             225        0.0         15       37.1      226.0       37.1       34.7        6.2     1009.9       37.1       21.7        0.0        0.0        0.0       0.00      163.7       0.00       3.40        0.0
15:40             219        0.0         15       37.1      226.0       37.1       34.7        6.2     1010.0       37.2       21.7        0.0        0.0        0.0       0.00      163.9       0.00       3.40        0.0
15:42             216        0.0         15       37.2      226.0       37.2       34.8        6.2     1009.9       37.2       21.7        0.0        0.0        0.0       0.00      164.4       0.00       3.40        0.0
15:43             232        0.0         14       37.2      226.0       37.2       34.7        5.2     1010.0       37.2       21.7        0.0        0.0        0.0       0.00      164.8       0.00       3.40        0.0
15:46             229        0.0         14       37.2      226.0       37.2       34.7        5.2     1009.9       37.2       21.7        0.0        0.0        0.0       0.00      165.2       0.00       3.56        0.0
15:48             214        0.0         15       37.1      226.0       37.1       34.7        6.2     1009.9       37.2       21.7        0.0        0.0        0.0       0.00      165.7       0.00       3.56        0.0
15:50             224        0.0         15       37.1      226.0       37.1       34.7        6.2     1009.9       37.2       21.7        0.0        0.0        0.0       0.00      166.0       0.00       3.56        0.0
15:52             222        0.0         15       37.1      226.0       37.1       34.7        6.2     1009.8       37.2       21.7        0.0        0.0        0.0       0.00      166.4       0.00       3.56        0.0
15:54             238        0.0         15       37.1      226.0       37.1       34.7        6.2     1009.8       37.2       21.7        0.0        0.0        0.0       0.00      166.8       0.00       3.56        0.0
15:56             239        0.0         15       37.1      226.0       37.1       34.7        6.2     1010.0       37.2       21.7        0.0        0.0        0.0       0.00      166.9       0.00       3.56        0.0
15:58             202        0.0         15       37.0      226.0       37.0       34.6        6.1     1009.8       37.2       21.7        0.0        0.0        0.0       0.00      167.6       0.00       3.56        0.0
16:00             194        0.0         15       37.1      226.0       37.1       34.7        6.2     1009.7       37.2       21.7        0.0        0.0        0.0       0.00      168.2       0.00       3.56        0.0
16:02             229        0.0         16       37.2      226.0       37.2       34.9        7.2     1009.9       37.2       21.7        0.0        0.0        0.0       0.00      169.0       0.00       3.71        0.0
16:04             269        0.0         16       37.2      226.0       37.2       35.0        7.2     1009.8       37.2       21.7        0.0        0.0        0.0       0.00      169.4       0.00       3.71        0.0
16:06             205        0.0         16       37.2      226.0       37.2       34.9        7.2     1009.6       37.2       21.7        0.0        0.0        0.0       0.00      169.6       0.00       3.71        0.0
16:08             225        0.0         16       37.2      226.0       37.2       34.9        7.2     1009.7       37.2       21.7        0.0        0.0        0.0       0.00      170.1       0.00       3.71        0.0
16:10             209        0.0         16       37.2      226.0       37.2       35.0        7.2     1009.7       37.2       21.7        0.0        0.0        0.0       0.00      171.0       0.00       3.71        0.0
16:12             211        0.0         16       37.3      226.0       37.3       35.1        7.3     1009.6       37.3       21.7        0.0        0.0        0.0       0.00      171.7       0.00       3.71        0.0
16:14             218        0.0         16       37.3      226.0       37.3       35.1        7.3     1009.6       37.3       21.7        0.0        0.0        0.0       0.00      172.0       0.00       3.71        0.0
16:16             192        0.0         16       37.3      226.0       37.3       35.1        7.3     1009.6       37.3       21.7        0.0        0.0        0.0       0.00      173.4       0.00       3.87        0.0
16:18             264        0.0         16       37.2      226.0       37.2       35.0        7.2     1009.6       37.3       21.7        0.0        0.0        0.0       0.00      173.9       0.00       3.87        0.0
16:20             218        0.0         17       37.2      226.0       37.2       35.1        8.1     1009.6       37.3       21.7        0.0        0.0        0.0       0.00      174.3       0.00       3.87        0.0
16:22             211        0.0         17       37.2      226.0       37.2       35.1        8.1     1009.6       37.3       21.7        0.0        0.0        0.0       0.00      175.2       0.00       3.87        0.0
16:23             216        0.0         17       37.3      226.0       37.3       35.2        8.2     1009.6       37.3       21.7        0.0        0.0        0.0       0.00      175.5       0.00       3.87        0.0
16:25             239        0.0         17       37.3      226.0       37.3       35.2        8.2     1009.6       37.3       21.7        0.0        0.0        0.0       0.00      176.1       0.00       3.87        0.0
16:28             277        0.0         17       37.3      226.0       37.3       35.2        8.2     1009.7       37.3       21.7        0.0        0.0        0.0       0.00      176.5       0.00       3.87        0.0
16:30             262        0.0         17       37.3      226.0       37.3       35.3        8.2     1009.6       37.3       21.7        0.0        0.0        0.0       0.00      176.9       0.00       3.87        0.0
16:31             274        0.0         17       37.3      226.0       37.3       35.2        8.2     1009.7       37.3       21.7        0.0        0.0        0.0       0.00      177.5       0.00       4.03        0.0
16:34             269        0.0         17       37.1      226.0       37.1       35.0        8.0     1009.6       37.3       21.7        0.0        0.0        0.0       0.00      177.8       0.00       4.03        0.0
16:35             243        0.0         17       36.9      226.0       36.9       34.8        7.9     1009.6       37.3       21.7        0.0        0.0        0.0       0.00      178.2       0.00       4.03        0.0
16:38             232        0.0         18       36.9      226.0       36.9       34.9        8.7     1009.6       37.3       21.7        0.0        0.0        0.0       0.00      178.3       0.00       4.03        0.0
16:40             218        0.0         18       37.0      226.0       37.0       35.1        8.8     1009.6       37.3       21.7        0.0        0.0        0.0       0.00      178.8       0.00       4.03        0.0
16:41             232        0.0         18       37.1      226.0       37.1       35.1        8.8     1009.6       37.3       21.7        0.0        0.0        0.0       0.00      179.8       0.00       4.03        0.0
16:44             254        0.0         18       37.1      226.0       37.1       35.1        8.8     1009.6       37.3       21.7        0.0        0.0        0.0       0.00      180.2       0.00       4.03        0.0
16:46             225        0.0         19       37.0      226.0       37.0       35.2        9.6     1009.6       37.3       21.7        0.0        0.0        0.0       0.00      180.6       0.00       4.19        0.0
16:48             235        0.0         19       37.1      226.0       37.1       35.3        9.6     1009.6       37.3       21.7        0.0        0.0        0.0       0.00      180.9       0.00       4.19        0.0
16:50             235        0.0         19       37.1      226.0       37.1       35.3        9.6     1009.6       37.3       21.7        0.0        0.0        0.0       0.00      181.6       0.00       4.19        0.0
16:52             217        0.0         19       37.1      226.0       37.1       35.3        9.6     1009.5       37.3       21.7        0.0        0.0        0.0       0.00      182.6       0.00       4.19        0.0
16:53             267        0.0         19       37.1      226.0       37.1       35.3        9.6     1009.5       37.3       21.7        0.0        0.0        0.0       0.00      183.1       0.00       4.19        0.0
16:56             254        0.0         18       36.9      226.0       36.9       35.0        8.7     1009.6       37.3       21.7        0.0        0.0        0.0       0.00      183.5       0.00       4.19        0.0
16:58             240        0.0         19       36.9      226.0       36.9       35.1        9.5     1009.6       37.3       21.7        0.0        0.0        0.0       0.00      184.0       0.00       4.19        0.0
17:00             273        0.0         20       36.8      226.0       36.8       35.1       10.2     1009.5       37.3       21.7        0.0        0.0        0.0       0.00      184.3       0.00       4.19        0.0
17:02             242        0.0         21       36.8      226.0       36.8       35.3       10.9     1009.5       37.3       21.7        0.0        0.0        0.0       0.00      184.6       0.00       4.34        0.0
17:04             264        0.0         23       36.7      226.0       36.7       35.6       12.2     1009.5       37.3       21.7        0.0        0.0        0.0       0.00      185.1       0.00       4.34        0.0
17:06             242        0.0         24       36.5      226.0       36.5       35.5       12.7     1009.5       37.3       21.7        0.0        0.0        0.0       0.00      185.6       0.00       4.34        0.0
17:07             256        0.0         25       36.4      226.0       36.4       35.6       13.2     1009.5       37.3       21.7        0.0        0.0        0.0       0.00      186.3       0.00       4.34        0.0
17:10             251        0.0         26       36.1      226.0       36.1       35.4       13.6     1009.5       37.3       21.7        0.0        0.0        0.0       0.00      186.9       0.00       4.34        0.0
17:12             223        0.0         27       35.9      226.0       35.9       35.3       14.0     1009.5       37.3       21.7        0.0        0.0        0.0       0.00      187.4       0.00       4.34        0.0
17:14             233        0.0         27       35.8      226.0       35.8       35.2       13.9     1009.5       37.3       21.7        0.0        0.0        0.0       0.00      187.8       0.00       4.34        0.0
17:16             242        0.0         27       35.7      226.0       35.7       35.1       13.8     1009.5       37.3       21.7        0.0        0.0        0.0       0.00      188.6       0.00       4.49        0.0
17:18             242        0.0         25       35.6      226.0       35.6       34.5       12.5     1009.5       37.3       21.7        0.0        0.0        0.0       0.00      189.2       0.00       4.49        0.0
17:20             251        0.0         26       35.3      226.0       35.3       34.3       12.9     1009.5       37.3       21.7        0.0        0.0        0.0       0.00      190.0       0.00       4.49        0.0
17:22             267        0.0         26       35.1      226.0       35.1       34.1       12.7     1009.5       37.3       21.7        0.0        0.0        0.0       0.00      190.5       0.00       4.49        0.0
17:24             215        0.0         27       35.0      226.0       35.0       34.1       13.2     1009.5       37.3       21.7        0.0        0.0        0.0       0.00      191.2       0.00       4.49        0.0
17:26             250        0.0         27       34.9      226.0       34.9       33.9       13.1     1009.4       37.3       21.7        0.0        0.0        0.0       0.00      191.8       0.00       4.49        0.0
17:28             206        0.0         28       34.7      226.0       34.7       33.9       13.5     1009.5       37.3       21.7        0.0        0.0        0.0       0.00      193.3       0.00       4.49        0.0
17:30             220        0.0         28       34.6      226.0       34.6       33.7       13.5     1009.5       37.3       21.7        0.0        0.0        0.0       0.00      194.6       0.00       4.49        0.0
17:32             221        0.0         29       34.6      226.0       34.6       33.9       13.9     1009.5       37.3       21.7        0.0        0.0        0.0       0.00      196.1       0.00       4.62        0.0
17:34             261        0.0         29       34.6      226.0       34.6       33.9       13.9     1009.5       37.3       21.7        0.0        0.0        0.0       0.00      197.1       0.00       4.62        0.0
17:36             231        0.0         29       34.5      226.0       34.5       33.8       13.9     1009.6       37.3       21.7        0.0        0.0        0.0       0.00      197.8       0.00       4.62        0.0
17:38             246        0.0         29       34.4      226.0       34.4       33.7       13.9     1009.6       37.3       21.7        0.0        0.0        0.0       0.00      198.4       0.00       4.62        0.0
17:40             243        0.0         29       34.4      226.0       34.4       33.6       13.8     1009.6       37.3       21.7        0.0        0.0        0.0       0.00      199.1       0.00       4.62        0.0
17:42             234        0.0         29       34.3      226.0       34.3       33.6       13.8     1009.6       37.3       21.7        0.0        0.0        0.0       0.00      199.7       0.00       4.62        0.0
17:43             252        0.0         29       34.4      226.0       34.4       33.6       13.8     1009.6       37.3       21.7        0.0        0.0        0.0       0.00      200.2       0.00       4.62        0.0
17:46             257        0.0         29       34.3      226.0       34.3       33.6       13.8     1009.6       37.3       21.7        0.0        0.0        0.0       0.00      201.0       0.00       4.75        0.0
17:48             250        0.0         29       34.3      226.0       34.3       33.5       13.7     1009.7       37.3       21.7        0.0        0.0        0.0       0.00      201.6       0.00       4.75        0.0
17:50             282        0.0         30       34.3      226.0       34.3       33.7       14.2     1009.7       37.3       21.7        0.0        0.0        0.0       0.00      202.1       0.00       4.75        0.0
17:52             271        0.0         29       34.2      226.0       34.2       33.3       13.6     1009.7       37.3       21.7        0.0        0.0        0.0       0.00      202.9       0.00       4.75        0.0
17:54             249        0.0         30       34.0      226.0       34.0       33.3       14.0     1009.7       37.3       21.7        0.0        0.0        0.0       0.00      203.5       0.00       4.75        0.0
17:56             250        0.0         30       33.9      226.0       33.9       33.2       13.9     1009.7       37.3       21.7        0.0        0.0        0.0       0.00      204.0       0.00       4.75        0.0
17:58             272        0.0         31       33.9      226.0       33.9       33.3       14.4     1009.7       37.3       21.7        0.0        0.0        0.0       0.00      204.6       0.00       4.75        0.0
18:00             251        0.0         31       33.8      226.0       33.8       33.2       14.4     1009.7       37.3       21.7        0.0        0.0        0.0       0.00      205.3       0.00       4.75        0.0
18:02             254        0.0         32       33.8      226.0       33.8       33.3       14.8     1009.7       37.3       21.7        0.0        0.0        0.0       0.00      205.8       0.00       4.87        0.0
18:04             254        0.0         32       33.7      226.0       33.7       33.2       14.7     1009.7       37.3       21.7        0.0        0.0        0.0       0.00      206.5       0.00       4.87        0.0
18:06             210        0.0         32       33.6      226.0       33.6       33.1       14.7     1009.7       37.3       21.7        0.0        0.0        0.0       0.00      207.1       0.00       4.87        0.0
18:08             232        0.0         32       33.6      226.0       33.6       33.0       14.6     1009.7       37.3       21.7        0.0        0.0        0.0       0.00      207.6       0.00       4.87        0.0
18:10             218        0.0         33       33.5      226.0       33.5       33.1       15.0     1009.7       37.3       21.7        0.0        0.0        0.0       0.00      208.4       0.00       4.87        0.0
18:12             214        0.0         33       33.5      226.0       33.5       33.1       15.0     1009.7       37.3       21.7        0.0        0.0        0.0       0.00      208.9       0.00       4.87        0.0
18:14             219        0.0         33       33.4      226.0       33.4       33.0       14.9     1009.7       37.3       21.7        0.0        0.0        0.0       0.00      209.5       0.00       4.87        0.0
18:15             220        0.0         33       33.3      226.0       33.3       32.9       14.9     1009.7       37.3       21.7        0.0        0.0        0.0       0.00      210.2       0.00       4.99        0.0
18:18             222        0.0         33       33.3      226.0       33.3       32.9       14.9     1009.7       37.3       21.7        0.0        0.0        0.0       0.00      211.4       0.00       4.99        0.0
18:20             246        0.0         33       33.3      226.0       33.3       32.8       14.8     1009.8       37.3       21.7        0.0        0.0        0.0       0.00      212.2       0.00       4.99        0.0
18:22             261        0.0         32       33.3      226.0       33.3       32.7       14.4     1009.8       37.3       21.7        0.0        0.0        0.0       0.00      212.8       0.00       4.99        0.0
18:24             252        0.0         32       33.2      226.0       33.2       32.6       14.3     1009.9       37.3       21.7        0.0        0.0        0.0       0.00      213.6       0.00       4.99        0.0
18:26             232        0.0         32       33.2      226.0       33.2       32.6       14.3     1009.8       37.3       21.7        0.0        0.0        0.0       0.00      214.0       0.00       4.99        0.0
18:28             229        0.0         32       33.2      226.0       33.2       32.5       14.3     1009.8       37.3       21.7        0.0        0.0        0.0       0.00      214.9       0.00       4.99        0.0
18:30             248        0.0         32       33.1      226.0       33.1       32.4       14.2     1009.8       37.3       21.7        0.0        0.0        0.0       0.00      215.4       0.00       4.99        0.0
18:32             231        0.0         32       33.1      226.0       33.1       32.4       14.2     1009.8       37.3       21.7        0.0        0.0        0.0       0.00      215.6       0.00       5.10        0.0
18:34             239        0.0         32       33.1      226.0       33.1       32.4       14.2     1009.9       37.3       21.7        0.0        0.0        0.0       0.00      215.8       0.00       5.10        0.0
18:36             244        0.0         32       33.1      226.0       33.1       32.4       14.2     1010.0       37.3       21.7        0.0        0.0        0.0       0.00      216.3       0.00       5.10        0.0
18:38             228        0.0         31       33.0      226.0       33.0       32.1       13.6     1010.0       37.3       21.7        0.0        0.0        0.0       0.00      216.8       0.00       5.10        0.0
18:39             250        0.0         31       32.9      226.0       32.9       32.0       13.5     1010.0       37.3       21.7        0.0        0.0        0.0       0.00      217.0       0.00       5.10        0.0
18:42             269        0.0         31       32.9      226.0       32.9       32.0       13.5     1010.0       37.3       21.7        0.0        0.0        0.0       0.00      217.4       0.00       5.10        0.0
18:44             247        0.0         31       32.8      226.0       32.8       31.9       13.5     1010.0       37.3       21.7        0.0        0.0        0.0       0.00      217.7       0.00       5.10        0.0
18:46             241        0.0         31       32.7      226.0       32.7       31.8       13.4     1010.1       37.3       21.7        0.0        0.0        0.0       0.00      217.9       0.00       5.22        0.0
18:48             223        0.0         31       32.7      226.0       32.7       31.7       13.3     1010.0       37.3       21.7        0.0        0.0        0.0       0.00      218.4       0.00       5.22        0.0
18:50             231        0.0         32       32.6      226.0       32.6       31.8       13.8     1010.0       37.3       21.7        0.0        0.0        0.0       0.00      219.3       0.00       5.22        0.0
18:51             238        0.0         32       32.5      226.0       32.5       31.7       13.7     1010.1       37.3       21.7        0.0        0.0        0.0       0.00      219.8       0.00       5.22        0.0
18:53             237        0.0         32       32.4      226.0       32.4       31.5       13.6     1010.2       37.3       21.7        0.0        0.0        0.0       0.00      220.1       0.00       5.22        0.0
18:56             219        0.0         32       32.2      226.0       32.2       31.3       13.5     1010.2       37.3       21.7        0.0        0.0        0.0       0.00      220.6       0.00       5.22        0.0
18:58             219        0.0         33       32.1      226.0       32.1       31.3       13.8     1010.2       37.3       21.7        0.0        0.0        0.0       0.00      221.0       0.00       5.22        0.0
19:00             223        0.0         33       32.0      226.0       32.0       31.2       13.7     1010.2       37.3       21.7        0.0        0.0        0.0       0.00      221.4       0.00       5.22        0.0
19:02             225        0.0         33       31.9      226.0       31.9       31.1       13.6     1010.2       37.3       21.7        0.0        0.0        0.0       0.00      222.0       0.00       5.32        0.0